Time,TemperatureF,DewpointF,PressureIn,WindDirection,WindDirectionDegrees,WindSpeedMPH,WindSpeedGustMPH,Humidity,HourlyPrecipIn,Conditions,Clouds,dailyrainin,SoftwareType,DateUTC
2013-09-21 00:02:00,57.9,50.4,24.95,East,95,3.1,3.1,76,0.00,,---,0.00,VWS V14.01,2013-09-21 05:02:00,
2013-09-21 00:03:00,57.9,50.4,24.95,SE,127,5.4,5.4,76,0.00,,---,0.00,VWS V14.01,2013-09-21 05:03:00,
2013-09-21 00:05:00,57.7,49.9,24.95,SE,127,5.4,5.4,75,0.00,,---,0.00,VWS V14.01,2013-09-21 05:05:00,
2013-09-21 00:07:00,57.7,49.9,24.95,SE,124,4.0,4.0,75,0.00,,---,0.00,VWS V14.01,2013-09-21 05:07:00,
2013-09-21 00:08:00,57.7,49.9,24.95,SE,124,4.0,4.0,75,0.00,,---,0.00,VWS V14.01,2013-09-21 05:08:00,
2013-09-21 00:10:00,57.7,49.9,24.95,ESE,117,3.1,3.1,75,0.00,,---,0.00,VWS V14.01,2013-09-21 05:10:00,
2013-09-21 00:12:00,57.7,49.9,24.95,ESE,117,3.1,3.1,75,0.00,,---,0.00,VWS V14.01,2013-09-21 05:12:00,
2013-09-21 00:13:00,57.7,49.9,24.95,ESE,117,3.1,3.1,75,0.00,,---,0.00,VWS V14.01,2013-09-21 05:13:00,
2013-09-21 00:14:00,57.7,49.9,24.95,ESE,117,3.1,3.1,75,0.00,,---,0.00,VWS V14.01,2013-09-21 05:14:00,
2013-09-21 00:15:00,57.7,49.9,24.95,ESE,117,3.1,3.1,75,0.00,,---,0.00,VWS V14.01,2013-09-21 05:15:00,
2013-09-21 00:17:00,57.7,49.9,24.95,East,98,3.6,3.6,75,0.00,,---,0.00,VWS V14.01,2013-09-21 05:17:00,
2013-09-21 00:18:00,57.7,49.9,24.95,East,98,3.6,3.6,75,0.00,,---,0.00,VWS V14.01,2013-09-21 05:18:00,
2013-09-21 00:19:00,57.7,50.2,24.95,East,98,3.6,3.6,76,0.00,,---,0.00,VWS V14.01,2013-09-21 05:19:00,
2013-09-21 00:21:00,57.7,50.2,24.95,East,98,3.6,3.6,76,0.00,,---,0.00,VWS V14.01,2013-09-21 05:21:00,
2013-09-21 00:23:00,57.7,50.2,24.95,East,98,3.6,3.6,76,0.00,,---,0.00,VWS V14.01,2013-09-21 05:23:00,
2013-09-21 00:24:00,57.7,50.2,24.95,East,98,3.6,3.6,76,0.00,,---,0.00,VWS V14.01,2013-09-21 05:24:00,
2013-09-21 00:25:00,57.7,50.2,24.95,East,97,3.6,3.6,76,0.00,,---,0.00,VWS V14.01,2013-09-21 05:25:00,
2013-09-21 00:27:00,57.6,49.7,24.95,East,96,4.0,4.0,75,0.00,,---,0.00,VWS V14.01,2013-09-21 05:27:00,
2013-09-21 00:28:00,57.6,49.7,24.95,East,89,3.6,4.0,75,0.00,,---,0.00,VWS V14.01,2013-09-21 05:28:00,
2013-09-21 00:30:00,57.6,49.7,24.95,ENE,72,3.6,3.6,75,0.00,,---,0.00,VWS V14.01,2013-09-21 05:30:00,
2013-09-21 00:31:00,57.6,49.7,24.95,ENE,72,3.6,3.6,75,0.00,,---,0.00,VWS V14.01,2013-09-21 05:31:00,
2013-09-21 00:32:00,57.6,49.7,24.95,ENE,72,3.6,3.6,75,0.00,,---,0.00,VWS V14.01,2013-09-21 05:32:00,
2013-09-21 00:33:00,57.6,49.7,24.95,ENE,72,3.6,3.6,75,0.00,,---,0.00,VWS V14.01,2013-09-21 05:33:00,
2013-09-21 00:34:00,57.6,49.7,24.95,East,81,5.4,5.4,75,0.00,,---,0.00,VWS V14.01,2013-09-21 05:34:00,
2013-09-21 00:35:00,57.6,49.7,24.95,East,81,5.4,5.4,75,0.00,,---,0.00,VWS V14.01,2013-09-21 05:35:00,
2013-09-21 00:36:00,57.6,49.7,24.95,East,101,4.0,4.0,75,0.00,,---,0.00,VWS V14.01,2013-09-21 05:36:00,
2013-09-21 00:37:00,57.6,49.7,24.95,East,101,4.0,4.0,75,0.00,,---,0.00,VWS V14.01,2013-09-21 05:37:00,
2013-09-21 00:38:00,57.6,49.7,24.95,East,97,4.0,4.0,75,0.00,,---,0.00,VWS V14.01,2013-09-21 05:38:00,
2013-09-21 00:39:00,57.6,49.7,24.95,East,85,4.9,4.9,75,0.00,,---,0.00,VWS V14.01,2013-09-21 05:39:00,
2013-09-21 00:40:00,57.6,49.7,24.95,East,85,4.9,4.9,75,0.00,,---,0.00,VWS V14.01,2013-09-21 05:40:00,
2013-09-21 00:41:00,57.4,49.5,24.95,East,85,4.9,4.9,75,0.00,,---,0.00,VWS V14.01,2013-09-21 05:41:00,
2013-09-21 00:42:00,57.4,49.5,24.95,East,85,4.9,4.9,75,0.00,,---,0.00,VWS V14.01,2013-09-21 05:42:00,
2013-09-21 00:43:00,57.4,49.5,24.95,East,85,4.9,4.9,75,0.00,,---,0.00,VWS V14.01,2013-09-21 05:43:00,
2013-09-21 00:44:00,57.4,49.5,24.95,East,85,4.9,4.9,75,0.00,,---,0.00,VWS V14.01,2013-09-21 05:44:00,
2013-09-21 00:45:00,57.4,49.5,24.95,East,85,4.9,4.9,75,0.00,,---,0.00,VWS V14.01,2013-09-21 05:45:00,
2013-09-21 00:47:00,57.4,49.5,24.95,East,84,4.9,4.9,75,0.00,,---,0.00,VWS V14.01,2013-09-21 05:47:00,
2013-09-21 00:48:00,57.4,49.5,24.95,East,84,4.9,4.9,75,0.00,,---,0.00,VWS V14.01,2013-09-21 05:48:00,
2013-09-21 00:49:00,57.4,49.5,24.95,East,84,4.9,4.9,75,0.00,,---,0.00,VWS V14.01,2013-09-21 05:49:00,
2013-09-21 00:50:00,57.4,49.5,24.95,ENE,77,4.0,4.0,75,0.00,,---,0.00,VWS V14.01,2013-09-21 05:50:00,
2013-09-21 00:52:00,57.4,49.5,24.95,East,86,2.7,2.7,75,0.00,,---,0.00,VWS V14.01,2013-09-21 05:52:00,
2013-09-21 00:53:00,57.4,49.5,24.95,East,86,2.7,2.7,75,0.00,,---,0.00,VWS V14.01,2013-09-21 05:53:00,
2013-09-21 00:54:00,57.2,49.4,24.95,ESE,103,2.7,2.7,75,0.00,,---,0.00,VWS V14.01,2013-09-21 05:54:00,
2013-09-21 00:55:00,57.2,49.4,24.95,ESE,103,2.7,2.7,75,0.00,,---,0.00,VWS V14.01,2013-09-21 05:55:00,
2013-09-21 00:57:00,57.2,49.4,24.95,East,81,2.7,2.7,75,0.00,,---,0.00,VWS V14.01,2013-09-21 05:57:00,
2013-09-21 00:58:00,57.2,49.4,24.95,East,81,2.7,2.7,75,0.00,,---,0.00,VWS V14.01,2013-09-21 05:58:00,
2013-09-21 00:59:00,57.2,49.4,24.95,East,81,2.7,2.7,75,0.00,,---,0.00,VWS V14.01,2013-09-21 05:59:00,
2013-09-21 01:00:00,57.2,49.4,24.95,East,90,0.0,0.0,75,0.00,,---,0.00,VWS V14.01,2013-09-21 06:00:00,
2013-09-21 01:02:00,57.2,49.4,24.95,East,99,0.0,0.0,75,0.00,,---,0.00,VWS V14.01,2013-09-21 06:02:00,
2013-09-21 01:03:00,57.2,49.4,24.95,East,99,0.0,0.0,75,0.00,,---,0.00,VWS V14.01,2013-09-21 06:03:00,
2013-09-21 01:04:00,57.2,49.4,24.95,East,99,0.0,0.0,75,0.00,,---,0.00,VWS V14.01,2013-09-21 06:04:00,
2013-09-21 01:06:00,57.2,49.4,24.95,East,99,0.0,0.0,75,0.00,,---,0.00,VWS V14.01,2013-09-21 06:06:00,
2013-09-21 01:08:00,57.2,49.4,24.95,East,99,0.0,0.0,75,0.00,,---,0.00,VWS V14.01,2013-09-21 06:08:00,
2013-09-21 01:09:00,57.2,49.4,24.95,East,99,0.0,0.0,75,0.00,,---,0.00,VWS V14.01,2013-09-21 06:09:00,
2013-09-21 01:11:00,57.2,49.4,24.95,East,99,0.0,0.0,75,0.00,,---,0.00,VWS V14.01,2013-09-21 06:11:00,
2013-09-21 01:13:00,57.2,49.4,24.95,East,91,3.6,3.6,75,0.00,,---,0.00,VWS V14.01,2013-09-21 06:13:00,
2013-09-21 01:14:00,57.2,49.4,24.95,East,91,3.6,3.6,75,0.00,,---,0.00,VWS V14.01,2013-09-21 06:14:00,
2013-09-21 01:16:00,57.2,49.4,24.95,East,91,3.6,3.6,75,0.00,,---,0.00,VWS V14.01,2013-09-21 06:16:00,
2013-09-21 01:19:00,57.4,49.5,24.95,East,96,3.1,3.1,75,0.00,,---,0.00,VWS V14.01,2013-09-21 06:19:00,
2013-09-21 01:21:00,57.4,49.2,24.95,East,96,3.1,3.1,74,0.00,,---,0.00,VWS V14.01,2013-09-21 06:21:00,
2013-09-21 01:24:00,57.4,49.2,24.95,ESE,123,3.1,3.1,74,0.00,,---,0.00,VWS V14.01,2013-09-21 06:24:00,
2013-09-21 01:25:00,57.2,49.0,24.95,ESE,123,3.1,3.1,74,0.00,,---,0.00,VWS V14.01,2013-09-21 06:25:00,
2013-09-21 01:26:00,57.2,49.0,24.95,ESE,123,3.1,3.1,74,0.00,,---,0.00,VWS V14.01,2013-09-21 06:26:00,
2013-09-21 01:29:00,57.2,49.0,24.95,ESE,110,2.7,2.7,74,0.00,,---,0.00,VWS V14.01,2013-09-21 06:29:00,
2013-09-21 01:30:00,57.2,49.0,24.95,ESE,110,2.7,2.7,74,0.00,,---,0.00,VWS V14.01,2013-09-21 06:30:00,
2013-09-21 01:31:00,57.2,49.0,24.95,ESE,102,0.0,2.7,74,0.00,,---,0.00,VWS V14.01,2013-09-21 06:31:00,
2013-09-21 01:34:00,57.2,49.0,24.95,ESE,102,0.0,0.0,74,0.00,,---,0.00,VWS V14.01,2013-09-21 06:34:00,
2013-09-21 01:35:00,57.2,49.0,24.95,ESE,102,0.0,0.0,74,0.00,,---,0.00,VWS V14.01,2013-09-21 06:35:00,
2013-09-21 01:36:00,57.0,49.2,24.95,ESE,102,0.0,0.0,75,0.00,,---,0.00,VWS V14.01,2013-09-21 06:36:00,
2013-09-21 01:39:00,57.0,49.2,24.95,ESE,102,0.0,0.0,75,0.00,,---,0.00,VWS V14.01,2013-09-21 06:39:00,
2013-09-21 01:40:00,57.0,49.2,24.95,ESE,102,0.0,0.0,75,0.00,,---,0.00,VWS V14.01,2013-09-21 06:40:00,
2013-09-21 01:41:00,57.0,49.2,24.95,ESE,102,0.0,0.0,75,0.00,,---,0.00,VWS V14.01,2013-09-21 06:41:00,
2013-09-21 01:44:00,57.0,49.2,24.95,ESE,102,0.0,0.0,75,0.00,,---,0.00,VWS V14.01,2013-09-21 06:44:00,
2013-09-21 01:45:00,57.0,49.2,24.95,ESE,102,0.0,0.0,75,0.00,,---,0.00,VWS V14.01,2013-09-21 06:45:00,
2013-09-21 01:46:00,57.0,49.2,24.95,ESE,102,0.0,0.0,75,0.00,,---,0.00,VWS V14.01,2013-09-21 06:46:00,
2013-09-21 01:47:00,57.0,49.2,24.95,ESE,102,0.0,0.0,75,0.00,,---,0.00,VWS V14.01,2013-09-21 06:47:00,
2013-09-21 01:49:00,57.0,49.2,24.95,ESE,102,0.0,0.0,75,0.00,,---,0.00,VWS V14.01,2013-09-21 06:49:00,
2013-09-21 01:50:00,57.0,49.2,24.95,ESE,102,0.0,0.0,75,0.00,,---,0.00,VWS V14.01,2013-09-21 06:50:00,
2013-09-21 01:51:00,57.0,49.2,24.95,ESE,102,3.6,3.6,75,0.00,,---,0.00,VWS V14.01,2013-09-21 06:51:00,
2013-09-21 01:52:00,57.0,49.2,24.95,ESE,102,3.6,3.6,75,0.00,,---,0.00,VWS V14.01,2013-09-21 06:52:00,
2013-09-21 01:54:00,57.2,49.4,24.95,ESE,102,2.7,2.7,75,0.00,,---,0.00,VWS V14.01,2013-09-21 06:54:00,
2013-09-21 01:56:00,57.2,49.4,24.95,ESE,102,0.0,2.7,75,0.00,,---,0.00,VWS V14.01,2013-09-21 06:56:00,
2013-09-21 01:57:00,57.2,49.4,24.95,ESE,102,0.0,0.0,75,0.00,,---,0.00,VWS V14.01,2013-09-21 06:57:00,
2013-09-21 01:59:00,57.2,49.4,24.95,ESE,102,0.0,0.0,75,0.00,,---,0.00,VWS V14.01,2013-09-21 06:59:00,
2013-09-21 02:01:00,57.2,49.4,24.95,ESE,102,2.2,2.2,75,0.00,,---,0.00,VWS V14.01,2013-09-21 07:01:00,
2013-09-21 02:02:00,57.2,49.4,24.95,ESE,113,2.2,2.2,75,0.00,,---,0.00,VWS V14.01,2013-09-21 07:02:00,
2013-09-21 02:03:00,57.2,49.4,24.95,East,91,3.1,3.1,75,0.00,,---,0.00,VWS V14.01,2013-09-21 07:03:00,
2013-09-21 02:05:00,57.2,49.4,24.95,East,91,3.1,3.1,75,0.00,,---,0.00,VWS V14.01,2013-09-21 07:05:00,
2013-09-21 02:06:00,57.2,49.4,24.95,East,91,3.1,3.1,75,0.00,,---,0.00,VWS V14.01,2013-09-21 07:06:00,
2013-09-21 02:07:00,57.2,49.4,24.95,ESE,104,0.0,0.0,75,0.00,,---,0.00,VWS V14.01,2013-09-21 07:07:00,
2013-09-21 02:08:00,57.2,49.4,24.95,ESE,104,0.0,0.0,75,0.00,,---,0.00,VWS V14.01,2013-09-21 07:08:00,
2013-09-21 02:10:00,57.2,49.4,24.95,ESE,104,0.0,0.0,75,0.00,,---,0.00,VWS V14.01,2013-09-21 07:10:00,
2013-09-21 02:11:00,57.2,49.4,24.95,ESE,104,0.0,0.0,75,0.00,,---,0.00,VWS V14.01,2013-09-21 07:11:00,
2013-09-21 02:12:00,57.2,49.4,24.95,ESE,104,0.0,0.0,75,0.00,,---,0.00,VWS V14.01,2013-09-21 07:12:00,
2013-09-21 02:13:00,57.2,49.4,24.95,ESE,104,0.0,0.0,75,0.00,,---,0.00,VWS V14.01,2013-09-21 07:13:00,
2013-09-21 02:15:00,57.2,49.4,24.95,ESE,104,0.0,0.0,75,0.00,,---,0.00,VWS V14.01,2013-09-21 07:15:00,
2013-09-21 02:16:00,57.2,49.4,24.95,ESE,110,0.0,0.0,75,0.00,,---,0.00,VWS V14.01,2013-09-21 07:16:00,
2013-09-21 02:17:00,57.2,49.4,24.95,ESE,110,0.0,0.0,75,0.00,,---,0.00,VWS V14.01,2013-09-21 07:17:00,
2013-09-21 02:18:00,57.2,49.4,24.95,ESE,110,0.0,0.0,75,0.00,,---,0.00,VWS V14.01,2013-09-21 07:18:00,
2013-09-21 02:20:00,57.2,49.4,24.95,ESE,110,0.0,0.0,75,0.00,,---,0.00,VWS V14.01,2013-09-21 07:20:00,
2013-09-21 02:21:00,57.2,49.4,24.95,ESE,110,0.0,0.0,75,0.00,,---,0.00,VWS V14.01,2013-09-21 07:21:00,
2013-09-21 02:22:00,57.2,49.7,24.95,ESE,110,0.0,0.0,76,0.00,,---,0.00,VWS V14.01,2013-09-21 07:22:00,
2013-09-21 02:23:00,57.2,49.7,24.95,ESE,110,0.0,0.0,76,0.00,,---,0.00,VWS V14.01,2013-09-21 07:23:00,
2013-09-21 02:25:00,57.2,49.7,24.95,ESE,110,0.0,0.0,76,0.00,,---,0.00,VWS V14.01,2013-09-21 07:25:00,
2013-09-21 02:27:00,57.2,49.7,24.95,ESE,110,0.0,0.0,76,0.00,,---,0.00,VWS V14.01,2013-09-21 07:27:00,
2013-09-21 02:28:00,57.2,49.7,24.95,ESE,110,0.0,0.0,76,0.00,,---,0.00,VWS V14.01,2013-09-21 07:28:00,
2013-09-21 02:30:00,57.2,49.7,24.95,ESE,110,0.0,0.0,76,0.00,,---,0.00,VWS V14.01,2013-09-21 07:30:00,
2013-09-21 02:33:00,57.2,49.7,24.95,ESE,110,0.0,0.0,76,0.00,,---,0.00,VWS V14.01,2013-09-21 07:33:00,
2013-09-21 02:35:00,57.2,49.7,24.95,ESE,110,0.0,0.0,76,0.00,,---,0.00,VWS V14.01,2013-09-21 07:35:00,
2013-09-21 02:38:00,57.2,49.7,24.95,ESE,109,0.0,0.0,76,0.00,,---,0.00,VWS V14.01,2013-09-21 07:38:00,
2013-09-21 02:39:00,57.2,49.7,24.95,ESE,109,0.0,0.0,76,0.00,,---,0.00,VWS V14.01,2013-09-21 07:39:00,
2013-09-21 02:41:00,57.2,49.7,24.95,ESE,109,0.0,0.0,76,0.00,,---,0.00,VWS V14.01,2013-09-21 07:41:00,
2013-09-21 02:43:00,57.2,49.7,24.95,ESE,109,0.0,0.0,76,0.00,,---,0.00,VWS V14.01,2013-09-21 07:43:00,
2013-09-21 02:44:00,57.2,49.7,24.95,ESE,109,0.0,0.0,76,0.00,,---,0.00,VWS V14.01,2013-09-21 07:44:00,
2013-09-21 02:46:00,57.2,49.7,24.95,ESE,109,0.0,0.0,76,0.00,,---,0.00,VWS V14.01,2013-09-21 07:46:00,
2013-09-21 02:48:00,57.2,49.7,24.95,ESE,122,3.6,3.6,76,0.00,,---,0.00,VWS V14.01,2013-09-21 07:48:00,
2013-09-21 02:49:00,57.2,49.7,24.95,ESE,107,3.1,3.1,76,0.00,,---,0.00,VWS V14.01,2013-09-21 07:49:00,
2013-09-21 02:51:00,57.2,49.7,24.95,SE,124,4.0,5.4,76,0.00,,---,0.00,VWS V14.01,2013-09-21 07:51:00,
2013-09-21 02:53:00,57.2,49.7,24.95,SE,124,4.0,4.0,76,0.00,,---,0.00,VWS V14.01,2013-09-21 07:53:00,
2013-09-21 02:54:00,57.2,49.7,24.95,SE,124,4.0,4.0,76,0.00,,---,0.00,VWS V14.01,2013-09-21 07:54:00,
2013-09-21 02:56:00,57.2,49.7,24.95,East,88,6.3,6.3,76,0.00,,---,0.00,VWS V14.01,2013-09-21 07:56:00,
2013-09-21 02:58:00,57.2,49.7,24.95,East,88,6.3,6.3,76,0.00,,---,0.00,VWS V14.01,2013-09-21 07:58:00,
2013-09-21 02:59:00,57.2,49.7,24.95,East,84,5.8,6.3,76,0.00,,---,0.00,VWS V14.01,2013-09-21 07:59:00,
2013-09-21 03:00:00,57.2,49.7,24.95,ESE,106,4.0,5.8,76,0.00,,---,0.00,VWS V14.01,2013-09-21 08:00:00,
2013-09-21 03:01:00,57.2,49.7,24.95,East,85,4.5,4.5,76,0.00,,---,0.00,VWS V14.01,2013-09-21 08:01:00,
2013-09-21 03:03:00,57.2,49.7,24.95,ESE,103,3.1,3.1,76,0.00,,---,0.00,VWS V14.01,2013-09-21 08:03:00,
2013-09-21 03:04:00,57.2,49.7,24.95,ESE,103,3.1,3.1,76,0.00,,---,0.00,VWS V14.01,2013-09-21 08:04:00,
2013-09-21 03:05:00,57.2,49.7,24.95,ESE,110,4.0,4.0,76,0.00,,---,0.00,VWS V14.01,2013-09-21 08:05:00,
2013-09-21 03:06:00,57.2,49.7,24.95,ESE,110,4.0,4.0,76,0.00,,---,0.00,VWS V14.01,2013-09-21 08:06:00,
2013-09-21 03:09:00,57.2,49.7,24.95,East,98,3.1,3.1,76,0.00,,---,0.00,VWS V14.01,2013-09-21 08:09:00,
2013-09-21 03:10:00,57.2,49.7,24.95,East,98,3.1,3.1,76,0.00,,---,0.00,VWS V14.01,2013-09-21 08:10:00,
2013-09-21 03:11:00,57.2,49.7,24.95,East,98,3.1,3.1,76,0.00,,---,0.00,VWS V14.01,2013-09-21 08:11:00,
2013-09-21 03:14:00,57.2,49.7,24.95,ESE,105,3.6,4.9,76,0.00,,---,0.00,VWS V14.01,2013-09-21 08:14:00,
2013-09-21 03:15:00,57.2,49.7,24.95,ESE,105,3.6,3.6,76,0.00,,---,0.00,VWS V14.01,2013-09-21 08:15:00,
2013-09-21 03:16:00,57.2,49.7,24.95,East,98,3.6,3.6,76,0.00,,---,0.00,VWS V14.01,2013-09-21 08:16:00,
2013-09-21 03:19:00,57.2,49.7,24.95,ESE,108,3.6,3.6,76,0.00,,---,0.00,VWS V14.01,2013-09-21 08:19:00,
2013-09-21 03:20:00,57.2,49.7,24.95,ESE,108,3.6,3.6,76,0.00,,---,0.00,VWS V14.01,2013-09-21 08:20:00,
2013-09-21 03:21:00,57.2,47.5,24.95,ESE,108,3.6,3.6,70,0.00,,---,0.00,VWS V14.01,2013-09-21 08:21:00,
2013-09-21 03:24:00,57.2,47.5,24.95,ESE,109,4.0,4.0,70,0.00,,---,0.00,VWS V14.01,2013-09-21 08:24:00,
2013-09-21 03:25:00,57.2,47.5,24.95,East,98,2.2,2.2,70,0.00,,---,0.00,VWS V14.01,2013-09-21 08:25:00,
2013-09-21 03:26:00,57.2,47.5,24.95,East,98,2.2,2.2,70,0.00,,---,0.00,VWS V14.01,2013-09-21 08:26:00,
2013-09-21 03:29:00,57.2,47.5,24.95,ESE,102,0.0,0.0,70,0.00,,---,0.00,VWS V14.01,2013-09-21 08:29:00,
2013-09-21 03:30:00,57.2,47.5,24.95,ESE,102,0.0,0.0,70,0.00,,---,0.00,VWS V14.01,2013-09-21 08:30:00,
2013-09-21 03:31:00,57.2,47.5,24.95,ESE,102,0.0,0.0,70,0.00,,---,0.00,VWS V14.01,2013-09-21 08:31:00,
2013-09-21 03:32:00,57.2,47.5,24.95,East,101,2.2,2.2,70,0.00,,---,0.00,VWS V14.01,2013-09-21 08:32:00,
2013-09-21 03:34:00,57.2,47.5,24.95,SE,128,4.0,4.0,70,0.00,,---,0.00,VWS V14.01,2013-09-21 08:34:00,
2013-09-21 03:35:00,57.2,47.5,24.95,SE,128,4.0,4.0,70,0.00,,---,0.00,VWS V14.01,2013-09-21 08:35:00,
2013-09-21 03:36:00,57.2,47.5,24.95,SE,125,3.1,4.0,70,0.00,,---,0.00,VWS V14.01,2013-09-21 08:36:00,
2013-09-21 03:37:00,57.2,47.5,24.95,ESE,123,3.1,3.1,70,0.00,,---,0.00,VWS V14.01,2013-09-21 08:37:00,
2013-09-21 03:39:00,57.2,47.5,24.95,ESE,123,3.1,3.1,70,0.00,,---,0.00,VWS V14.01,2013-09-21 08:39:00,
2013-09-21 03:40:00,57.2,47.5,24.95,SE,139,4.0,4.0,70,0.00,,---,0.00,VWS V14.01,2013-09-21 08:40:00,
2013-09-21 03:41:00,57.2,47.5,24.95,SE,139,4.0,4.0,70,0.00,,---,0.00,VWS V14.01,2013-09-21 08:41:00,
2013-09-21 03:42:00,57.2,47.5,24.95,SE,139,4.0,4.0,70,0.00,,---,0.00,VWS V14.01,2013-09-21 08:42:00,
2013-09-21 03:45:00,57.2,47.5,24.95,SE,128,2.7,2.7,70,0.00,,---,0.00,VWS V14.01,2013-09-21 08:45:00,
2013-09-21 03:46:00,57.2,47.5,24.95,SE,128,0.0,0.0,70,0.00,,---,0.00,VWS V14.01,2013-09-21 08:46:00,
2013-09-21 03:47:00,57.2,47.5,24.95,ESE,109,0.0,0.0,70,0.00,,---,0.00,VWS V14.01,2013-09-21 08:47:00,
2013-09-21 03:50:00,57.2,46.8,24.95,East,91,3.6,3.6,68,0.00,,---,0.00,VWS V14.01,2013-09-21 08:50:00,
2013-09-21 03:51:00,57.2,46.8,24.95,ESE,123,3.1,3.1,68,0.00,,---,0.00,VWS V14.01,2013-09-21 08:51:00,
2013-09-21 03:52:00,57.2,46.8,24.95,ESE,123,3.1,3.1,68,0.00,,---,0.00,VWS V14.01,2013-09-21 08:52:00,
2013-09-21 03:55:00,57.2,46.8,24.95,ESE,104,2.7,3.6,68,0.00,,---,0.00,VWS V14.01,2013-09-21 08:55:00,
2013-09-21 03:56:00,57.2,46.8,24.95,ESE,105,2.7,3.6,68,0.00,,---,0.00,VWS V14.01,2013-09-21 08:56:00,
2013-09-21 03:57:00,57.2,46.8,24.95,ESE,105,2.7,2.7,68,0.00,,---,0.00,VWS V14.01,2013-09-21 08:57:00,
2013-09-21 04:01:00,57.2,46.8,24.95,ESE,110,2.2,2.2,68,0.00,,---,0.00,VWS V14.01,2013-09-21 09:01:00,
2013-09-21 04:02:00,57.2,46.8,24.95,ESE,110,2.2,2.2,68,0.00,,---,0.00,VWS V14.01,2013-09-21 09:02:00,
2013-09-21 04:06:00,57.2,46.8,24.95,ESE,108,0.0,0.0,68,0.00,,---,0.00,VWS V14.01,2013-09-21 09:06:00,
2013-09-21 04:07:00,57.2,46.8,24.95,ESE,108,0.0,0.0,68,0.00,,---,0.00,VWS V14.01,2013-09-21 09:07:00,
2013-09-21 04:11:00,57.2,46.8,24.95,ESE,122,3.1,3.6,68,0.00,,---,0.00,VWS V14.01,2013-09-21 09:11:00,
2013-09-21 04:12:00,57.2,46.8,24.95,ESE,122,3.1,3.1,68,0.00,,---,0.00,VWS V14.01,2013-09-21 09:12:00,
2013-09-21 04:16:00,57.0,47.0,24.95,ESE,111,2.7,2.7,69,0.00,,---,0.00,VWS V14.01,2013-09-21 09:16:00,
2013-09-21 04:17:00,57.0,47.0,24.95,ESE,111,2.7,2.7,69,0.00,,---,0.00,VWS V14.01,2013-09-21 09:17:00,
2013-09-21 04:21:00,57.0,47.0,24.95,ESE,115,2.7,2.7,69,0.00,,---,0.00,VWS V14.01,2013-09-21 09:21:00,
2013-09-21 04:22:00,57.0,47.0,24.95,ESE,115,2.7,2.7,69,0.00,,---,0.00,VWS V14.01,2013-09-21 09:22:00,
2013-09-21 04:27:00,57.0,47.0,24.95,ESE,115,0.0,0.0,69,0.00,,---,0.00,VWS V14.01,2013-09-21 09:27:00,
2013-09-21 04:32:00,57.0,47.0,24.95,ESE,106,0.0,0.0,69,0.00,,---,0.00,VWS V14.01,2013-09-21 09:32:00,
2013-09-21 04:33:00,57.0,47.0,24.95,ESE,106,0.0,0.0,69,0.00,,---,0.00,VWS V14.01,2013-09-21 09:33:00,
2013-09-21 04:37:00,56.8,47.5,24.95,ESE,105,2.7,3.1,71,0.00,,---,0.00,VWS V14.01,2013-09-21 09:37:00,
2013-09-21 04:38:00,56.8,47.5,24.95,ESE,105,2.7,3.1,71,0.00,,---,0.00,VWS V14.01,2013-09-21 09:38:00,
2013-09-21 04:42:00,56.8,47.5,24.95,ESE,119,0.0,0.0,71,0.00,,---,0.00,VWS V14.01,2013-09-21 09:42:00,
2013-09-21 04:43:00,56.8,47.5,24.95,ESE,119,0.0,0.0,71,0.00,,---,0.00,VWS V14.01,2013-09-21 09:43:00,
2013-09-21 04:48:00,56.8,47.5,24.95,ESE,113,2.2,2.2,71,0.00,,---,0.00,VWS V14.01,2013-09-21 09:48:00,
2013-09-21 04:53:00,56.8,47.5,24.95,SE,136,2.2,3.1,71,0.00,,---,0.00,VWS V14.01,2013-09-21 09:53:00,
2013-09-21 04:54:00,56.8,47.5,24.95,SE,129,3.6,3.6,71,0.00,,---,0.00,VWS V14.01,2013-09-21 09:54:00,
2013-09-21 04:58:00,56.8,47.5,24.95,ESE,120,3.1,3.1,71,0.00,,---,0.00,VWS V14.01,2013-09-21 09:58:00,
2013-09-21 04:59:00,56.8,47.5,24.95,ESE,120,3.1,3.1,71,0.00,,---,0.00,VWS V14.01,2013-09-21 09:59:00,
2013-09-21 05:03:00,57.0,48.1,24.95,SE,135,3.6,3.6,72,0.00,,---,0.00,VWS V14.01,2013-09-21 10:03:00,
2013-09-21 05:04:00,57.0,48.1,24.95,SE,135,3.6,3.6,72,0.00,,---,0.00,VWS V14.01,2013-09-21 10:04:00,
2013-09-21 05:08:00,57.0,48.5,24.95,SE,140,2.7,2.7,73,0.00,,---,0.00,VWS V14.01,2013-09-21 10:08:00,
2013-09-21 05:09:00,57.0,48.5,24.95,SE,133,2.7,2.7,73,0.00,,---,0.00,VWS V14.01,2013-09-21 10:09:00,
2013-09-21 05:10:00,57.0,48.5,24.95,SE,133,2.7,2.7,73,0.00,,---,0.00,VWS V14.01,2013-09-21 10:10:00,
2013-09-21 05:13:00,57.0,48.5,24.92,ESE,109,2.7,4.9,73,0.00,,---,0.00,VWS V14.01,2013-09-21 10:13:00,
2013-09-21 05:14:00,57.0,48.5,24.92,ESE,109,2.7,2.7,73,0.00,,---,0.00,VWS V14.01,2013-09-21 10:14:00,
2013-09-21 05:15:00,57.0,48.5,24.92,ESE,109,2.7,2.7,73,0.00,,---,0.00,VWS V14.01,2013-09-21 10:15:00,
2013-09-21 05:18:00,57.0,48.8,24.92,ESE,117,3.6,3.6,74,0.00,,---,0.00,VWS V14.01,2013-09-21 10:18:00,
2013-09-21 05:19:00,57.0,48.8,24.92,ESE,117,3.6,3.6,74,0.00,,---,0.00,VWS V14.01,2013-09-21 10:19:00,
2013-09-21 05:20:00,57.0,48.8,24.92,ESE,117,3.6,3.6,74,0.00,,---,0.00,VWS V14.01,2013-09-21 10:20:00,
2013-09-21 05:23:00,57.0,48.8,24.92,ESE,115,3.6,3.6,74,0.00,,---,0.00,VWS V14.01,2013-09-21 10:23:00,
2013-09-21 05:24:00,56.8,48.7,24.92,SE,124,5.8,5.8,74,0.00,,---,0.00,VWS V14.01,2013-09-21 10:24:00,
2013-09-21 05:25:00,56.8,48.7,24.92,SE,124,5.8,5.8,74,0.00,,---,0.00,VWS V14.01,2013-09-21 10:25:00,
2013-09-21 05:28:00,56.8,48.7,24.92,ESE,114,3.6,3.6,74,0.00,,---,0.00,VWS V14.01,2013-09-21 10:28:00,
2013-09-21 05:29:00,56.8,48.7,24.92,ESE,114,3.6,3.6,74,0.00,,---,0.00,VWS V14.01,2013-09-21 10:29:00,
2013-09-21 05:30:00,56.8,48.7,24.92,ESE,114,3.6,3.6,74,0.00,,---,0.00,VWS V14.01,2013-09-21 10:30:00,
2013-09-21 05:31:00,56.8,48.7,24.92,ESE,119,3.6,3.6,74,0.00,,---,0.00,VWS V14.01,2013-09-21 10:31:00,
2013-09-21 05:33:00,56.8,48.7,24.92,ESE,117,3.6,3.6,74,0.00,,---,0.00,VWS V14.01,2013-09-21 10:33:00,
2013-09-21 05:34:00,56.8,48.7,24.92,SE,133,3.1,3.1,74,0.00,,---,0.00,VWS V14.01,2013-09-21 10:34:00,
2013-09-21 05:35:00,56.8,48.7,24.92,SE,133,3.1,3.1,74,0.00,,---,0.00,VWS V14.01,2013-09-21 10:35:00,
2013-09-21 05:36:00,56.8,48.7,24.92,SE,138,3.6,3.6,74,0.00,,---,0.00,VWS V14.01,2013-09-21 10:36:00,
2013-09-21 05:38:00,56.8,48.7,24.92,SE,138,3.6,3.6,74,0.00,,---,0.00,VWS V14.01,2013-09-21 10:38:00,
2013-09-21 05:39:00,56.8,48.7,24.92,ESE,120,2.7,3.6,74,0.00,,---,0.00,VWS V14.01,2013-09-21 10:39:00,
2013-09-21 05:40:00,56.8,48.7,24.92,ESE,120,2.7,2.7,74,0.00,,---,0.00,VWS V14.01,2013-09-21 10:40:00,
2013-09-21 05:41:00,56.8,48.7,24.92,ESE,121,3.1,4.0,74,0.00,,---,0.00,VWS V14.01,2013-09-21 10:41:00,
2013-09-21 05:42:00,56.8,48.7,24.92,ESE,121,3.1,4.0,74,0.00,,---,0.00,VWS V14.01,2013-09-21 10:42:00,
2013-09-21 05:43:00,56.8,48.7,24.92,ESE,120,2.7,2.7,74,0.00,,---,0.00,VWS V14.01,2013-09-21 10:43:00,
2013-09-21 05:45:00,56.8,48.7,24.92,ESE,120,3.1,3.1,74,0.00,,---,0.00,VWS V14.01,2013-09-21 10:45:00,
2013-09-21 05:46:00,56.8,48.7,24.92,ESE,110,4.0,4.0,74,0.00,,---,0.00,VWS V14.01,2013-09-21 10:46:00,
2013-09-21 05:48:00,57.0,48.8,24.92,ESE,110,4.0,4.0,74,0.00,,---,0.00,VWS V14.01,2013-09-21 10:48:00,
2013-09-21 05:49:00,57.0,48.8,24.92,SE,126,4.0,4.0,74,0.00,,---,0.00,VWS V14.01,2013-09-21 10:49:00,
2013-09-21 05:50:00,57.0,48.8,24.92,SE,126,4.0,4.0,74,0.00,,---,0.00,VWS V14.01,2013-09-21 10:50:00,
2013-09-21 05:52:00,57.0,48.8,24.92,ESE,110,3.6,3.6,74,0.00,,---,0.00,VWS V14.01,2013-09-21 10:52:00,
2013-09-21 05:53:00,57.0,48.8,24.92,ESE,118,0.0,0.0,74,0.00,,---,0.00,VWS V14.01,2013-09-21 10:53:00,
2013-09-21 05:54:00,57.0,48.8,24.92,ESE,109,3.6,3.6,74,0.00,,---,0.00,VWS V14.01,2013-09-21 10:54:00,
2013-09-21 05:55:00,57.0,48.8,24.92,ESE,109,3.6,3.6,74,0.00,,---,0.00,VWS V14.01,2013-09-21 10:55:00,
2013-09-21 05:58:00,57.0,48.8,24.92,SE,127,0.0,3.6,74,0.00,,---,0.00,VWS V14.01,2013-09-21 10:58:00,
2013-09-21 05:59:00,57.0,48.5,24.92,SE,127,0.0,0.0,73,0.00,,---,0.00,VWS V14.01,2013-09-21 10:59:00,
2013-09-21 06:00:00,57.0,48.5,24.92,SE,127,0.0,0.0,73,0.00,,---,0.00,VWS V14.01,2013-09-21 11:00:00,
2013-09-21 06:01:00,57.0,48.5,24.92,SE,127,0.0,0.0,73,0.00,,---,0.00,VWS V14.01,2013-09-21 11:01:00,
2013-09-21 06:03:00,57.0,48.5,24.92,ESE,123,0.0,0.0,73,0.00,,---,0.00,VWS V14.01,2013-09-21 11:03:00,
2013-09-21 06:04:00,57.0,48.5,24.92,ESE,123,0.0,0.0,73,0.00,,---,0.00,VWS V14.01,2013-09-21 11:04:00,
2013-09-21 06:05:00,57.0,48.5,24.92,ESE,123,0.0,0.0,73,0.00,,---,0.00,VWS V14.01,2013-09-21 11:05:00,
2013-09-21 06:06:00,57.0,48.5,24.92,ESE,123,0.0,0.0,73,0.00,,---,0.00,VWS V14.01,2013-09-21 11:06:00,
2013-09-21 06:08:00,57.0,48.5,24.92,ESE,108,3.1,3.1,73,0.00,,---,0.00,VWS V14.01,2013-09-21 11:08:00,
2013-09-21 06:09:00,57.0,48.5,24.92,SE,145,3.1,3.1,73,0.00,,---,0.00,VWS V14.01,2013-09-21 11:09:00,
2013-09-21 06:10:00,57.0,48.5,24.92,East,98,2.7,3.1,73,0.00,,---,0.00,VWS V14.01,2013-09-21 11:10:00,
2013-09-21 06:11:00,57.0,48.5,24.92,ESE,113,3.1,3.1,73,0.00,,---,0.00,VWS V14.01,2013-09-21 11:11:00,
2013-09-21 06:13:00,57.0,48.5,24.92,ESE,113,3.1,3.1,73,0.00,,---,0.00,VWS V14.01,2013-09-21 11:13:00,
2013-09-21 06:14:00,57.2,47.9,24.92,ESE,113,3.1,3.1,71,0.00,,---,0.00,VWS V14.01,2013-09-21 11:14:00,
2013-09-21 06:15:00,57.2,47.9,24.92,ESE,113,3.1,3.1,71,0.00,,---,0.00,VWS V14.01,2013-09-21 11:15:00,
2013-09-21 06:16:00,57.2,47.9,24.92,ESE,116,5.8,5.8,71,0.00,,---,0.00,VWS V14.01,2013-09-21 11:16:00,
2013-09-21 06:18:00,57.2,47.9,24.95,ESE,107,5.4,5.4,71,0.00,,---,0.00,VWS V14.01,2013-09-21 11:18:00,
2013-09-21 06:19:00,57.2,47.9,24.95,ESE,110,4.9,4.9,71,0.00,,---,0.00,VWS V14.01,2013-09-21 11:19:00,
2013-09-21 06:20:00,57.2,47.9,24.95,ESE,110,4.9,4.9,71,0.00,,---,0.00,VWS V14.01,2013-09-21 11:20:00,
2013-09-21 06:21:00,57.2,47.9,24.95,East,99,5.8,5.8,71,0.00,,---,0.00,VWS V14.01,2013-09-21 11:21:00,
2013-09-21 06:23:00,57.2,47.9,24.95,East,99,5.8,5.8,71,0.00,,---,0.00,VWS V14.01,2013-09-21 11:23:00,
2013-09-21 06:24:00,57.2,47.9,24.95,ESE,120,4.0,4.0,71,0.00,,---,0.00,VWS V14.01,2013-09-21 11:24:00,
2013-09-21 06:25:00,57.2,47.9,24.95,ESE,120,4.0,4.0,71,0.00,,---,0.00,VWS V14.01,2013-09-21 11:25:00,
2013-09-21 06:26:00,57.2,47.9,24.95,ESE,118,6.3,6.3,71,0.00,,---,0.00,VWS V14.01,2013-09-21 11:26:00,
2013-09-21 06:29:00,57.2,47.9,24.95,SE,127,5.4,6.3,71,0.00,,---,0.00,VWS V14.01,2013-09-21 11:29:00,
2013-09-21 06:30:00,57.2,47.9,24.95,SE,132,5.4,5.8,71,0.00,,---,0.00,VWS V14.01,2013-09-21 11:30:00,
2013-09-21 06:32:00,57.2,47.9,24.95,SE,132,5.4,5.4,71,0.00,,---,0.00,VWS V14.01,2013-09-21 11:32:00,
2013-09-21 06:34:00,57.2,47.9,24.95,SE,126,4.0,4.0,71,0.00,,---,0.00,VWS V14.01,2013-09-21 11:34:00,
2013-09-21 06:35:00,57.0,42.0,24.95,ESE,115,3.1,3.1,57,0.00,,---,0.00,VWS V14.01,2013-09-21 11:35:00,
2013-09-21 06:37:00,57.0,42.0,24.95,ESE,118,3.1,3.1,57,0.00,,---,0.00,VWS V14.01,2013-09-21 11:37:00,
2013-09-21 06:39:00,57.0,42.0,24.95,SE,128,4.0,4.0,57,0.00,,---,0.00,VWS V14.01,2013-09-21 11:39:00,
2013-09-21 06:40:00,57.0,42.0,24.95,SE,128,4.0,4.0,57,0.00,,---,0.00,VWS V14.01,2013-09-21 11:40:00,
2013-09-21 06:42:00,57.0,42.0,24.95,ESE,117,4.9,4.9,57,0.00,,---,0.00,VWS V14.01,2013-09-21 11:42:00,
2013-09-21 06:44:00,57.0,42.0,24.95,ESE,117,4.9,4.9,57,0.00,,---,0.00,VWS V14.01,2013-09-21 11:44:00,
2013-09-21 06:45:00,57.0,42.0,24.95,ESE,121,3.1,3.1,57,0.00,,---,0.00,VWS V14.01,2013-09-21 11:45:00,
2013-09-21 06:46:00,57.0,42.0,24.95,ESE,121,3.1,3.1,57,0.00,,---,0.00,VWS V14.01,2013-09-21 11:46:00,
2013-09-21 06:47:00,57.0,42.0,24.95,ESE,121,0.0,0.0,57,0.00,,---,0.00,VWS V14.01,2013-09-21 11:47:00,
2013-09-21 06:49:00,57.0,42.8,24.95,ESE,121,2.7,2.7,59,0.00,,---,0.00,VWS V14.01,2013-09-21 11:49:00,
2013-09-21 06:50:00,57.0,42.8,24.95,ESE,121,2.7,2.7,59,0.00,,---,0.00,VWS V14.01,2013-09-21 11:50:00,
2013-09-21 06:51:00,57.0,42.8,24.95,ESE,121,0.0,2.7,59,0.00,,---,0.00,VWS V14.01,2013-09-21 11:51:00,
2013-09-21 06:52:00,57.0,42.8,24.95,ESE,121,0.0,0.0,59,0.00,,---,0.00,VWS V14.01,2013-09-21 11:52:00,
2013-09-21 06:54:00,57.0,42.8,24.95,ESE,121,0.0,0.0,59,0.00,,---,0.00,VWS V14.01,2013-09-21 11:54:00,
2013-09-21 06:55:00,57.0,42.8,24.95,ESE,121,0.0,0.0,59,0.00,,---,0.00,VWS V14.01,2013-09-21 11:55:00,
2013-09-21 06:56:00,57.0,42.8,24.95,ESE,121,0.0,0.0,59,0.00,,---,0.00,VWS V14.01,2013-09-21 11:56:00,
2013-09-21 06:57:00,57.0,43.7,24.95,SE,142,0.0,0.0,61,0.00,,---,0.00,VWS V14.01,2013-09-21 11:57:00,
2013-09-21 06:59:00,57.0,43.7,24.95,SE,142,0.0,0.0,61,0.00,,---,0.00,VWS V14.01,2013-09-21 11:59:00,
2013-09-21 07:01:00,57.0,43.7,24.95,SE,142,0.0,0.0,61,0.00,,---,0.00,VWS V14.01,2013-09-21 12:01:00,
2013-09-21 07:03:00,57.0,43.7,24.95,SE,142,0.0,0.0,61,0.00,,---,0.00,VWS V14.01,2013-09-21 12:03:00,
2013-09-21 07:04:00,57.0,43.7,24.95,SE,142,0.0,0.0,61,0.00,,---,0.00,VWS V14.01,2013-09-21 12:04:00,
2013-09-21 07:06:00,57.0,43.7,24.95,SE,142,0.0,0.0,61,0.00,,---,0.00,VWS V14.01,2013-09-21 12:06:00,
2013-09-21 07:08:00,57.0,43.7,24.95,ESE,122,0.0,0.0,61,0.00,,---,0.00,VWS V14.01,2013-09-21 12:08:00,
2013-09-21 07:10:00,57.0,43.7,24.95,ESE,114,0.0,0.0,61,0.00,,---,0.00,VWS V14.01,2013-09-21 12:10:00,
2013-09-21 07:11:00,57.0,43.7,24.95,ESE,114,0.0,0.0,61,0.00,,---,0.00,VWS V14.01,2013-09-21 12:11:00,
2013-09-21 07:12:00,57.0,43.7,24.95,ESE,114,0.0,0.0,61,0.00,,---,0.00,VWS V14.01,2013-09-21 12:12:00,
2013-09-21 07:13:00,57.0,44.6,24.95,ESE,115,2.7,2.7,63,0.00,,---,0.00,VWS V14.01,2013-09-21 12:13:00,
2013-09-21 07:15:00,57.0,44.6,24.95,ESE,115,2.7,2.7,63,0.00,,---,0.00,VWS V14.01,2013-09-21 12:15:00,
2013-09-21 07:16:00,57.0,44.6,24.95,ESE,115,2.2,2.2,63,0.00,,---,0.00,VWS V14.01,2013-09-21 12:16:00,
2013-09-21 07:17:00,57.0,44.6,24.95,ESE,115,0.0,2.2,63,0.00,,---,0.00,VWS V14.01,2013-09-21 12:17:00,
2013-09-21 07:18:00,57.0,44.6,24.95,ESE,115,0.0,0.0,63,0.00,,---,0.00,VWS V14.01,2013-09-21 12:18:00,
2013-09-21 07:20:00,57.0,44.6,24.95,ESE,115,0.0,0.0,63,0.00,,---,0.00,VWS V14.01,2013-09-21 12:20:00,
2013-09-21 07:21:00,57.0,44.6,24.95,ESE,114,0.0,0.0,63,0.00,,---,0.00,VWS V14.01,2013-09-21 12:21:00,
2013-09-21 07:22:00,57.0,44.6,24.95,ESE,114,0.0,0.0,63,0.00,,---,0.00,VWS V14.01,2013-09-21 12:22:00,
2013-09-21 07:23:00,57.0,44.6,24.95,ESE,114,0.0,0.0,63,0.00,,---,0.00,VWS V14.01,2013-09-21 12:23:00,
2013-09-21 07:26:00,57.0,44.6,24.95,ESE,114,0.0,0.0,63,0.00,,---,0.00,VWS V14.01,2013-09-21 12:26:00,
2013-09-21 07:27:00,57.0,44.6,24.95,ESE,114,0.0,0.0,63,0.00,,---,0.00,VWS V14.01,2013-09-21 12:27:00,
2013-09-21 07:28:00,57.0,44.6,24.95,ESE,114,0.0,0.0,63,0.00,,---,0.00,VWS V14.01,2013-09-21 12:28:00,
2013-09-21 07:31:00,57.0,44.6,24.95,ESE,114,0.0,0.0,63,0.00,,---,0.00,VWS V14.01,2013-09-21 12:31:00,
2013-09-21 07:32:00,57.0,44.6,24.95,ESE,114,0.0,0.0,63,0.00,,---,0.00,VWS V14.01,2013-09-21 12:32:00,
2013-09-21 07:33:00,57.0,44.6,24.95,ESE,114,0.0,0.0,63,0.00,,---,0.00,VWS V14.01,2013-09-21 12:33:00,
2013-09-21 07:34:00,57.0,44.6,24.95,ESE,114,0.0,0.0,63,0.00,,---,0.00,VWS V14.01,2013-09-21 12:34:00,
2013-09-21 07:36:00,57.0,44.6,24.95,ESE,114,0.0,0.0,63,0.00,,---,0.00,VWS V14.01,2013-09-21 12:36:00,
2013-09-21 07:37:00,57.0,44.6,24.95,ESE,114,0.0,0.0,63,0.00,,---,0.00,VWS V14.01,2013-09-21 12:37:00,
2013-09-21 07:39:00,57.0,44.6,24.95,ESE,114,0.0,0.0,63,0.00,,---,0.00,VWS V14.01,2013-09-21 12:39:00,
2013-09-21 07:42:00,57.0,45.0,24.95,ESE,114,0.0,0.0,64,0.00,,---,0.00,VWS V14.01,2013-09-21 12:42:00,
2013-09-21 07:44:00,57.0,45.0,24.95,ESE,114,0.0,0.0,64,0.00,,---,0.00,VWS V14.01,2013-09-21 12:44:00,
2013-09-21 07:47:00,57.0,45.0,24.95,ESE,114,0.0,0.0,64,0.00,,---,0.00,VWS V14.01,2013-09-21 12:47:00,
2013-09-21 07:48:00,57.0,45.0,24.95,ESE,114,0.0,0.0,64,0.00,,---,0.00,VWS V14.01,2013-09-21 12:48:00,
2013-09-21 07:49:00,57.0,45.0,24.95,ESE,114,0.0,0.0,64,0.00,,---,0.00,VWS V14.01,2013-09-21 12:49:00,
2013-09-21 07:50:00,57.0,45.0,24.95,ESE,114,0.0,0.0,64,0.00,,---,0.00,VWS V14.01,2013-09-21 12:50:00,
2013-09-21 07:52:00,57.0,45.0,24.95,ESE,114,0.0,0.0,64,0.00,,---,0.00,VWS V14.01,2013-09-21 12:52:00,
2013-09-21 07:53:00,57.0,45.0,24.95,ESE,114,0.0,0.0,64,0.00,,---,0.00,VWS V14.01,2013-09-21 12:53:00,
2013-09-21 07:54:00,57.0,45.0,24.95,ESE,114,0.0,0.0,64,0.00,,---,0.00,VWS V14.01,2013-09-21 12:54:00,
2013-09-21 07:55:00,57.0,45.0,24.95,ESE,114,0.0,0.0,64,0.00,,---,0.00,VWS V14.01,2013-09-21 12:55:00,
2013-09-21 07:57:00,57.0,45.4,24.95,ESE,114,0.0,0.0,65,0.00,,---,0.00,VWS V14.01,2013-09-21 12:57:00,
2013-09-21 07:58:00,57.0,45.4,24.95,ESE,114,0.0,0.0,65,0.00,,---,0.00,VWS V14.01,2013-09-21 12:58:00,
2013-09-21 08:00:00,57.0,45.4,24.95,ESE,114,0.0,0.0,65,0.00,,---,0.00,VWS V14.01,2013-09-21 13:00:00,
2013-09-21 08:01:00,57.0,45.4,24.95,ESE,114,0.0,0.0,65,0.00,,---,0.00,VWS V14.01,2013-09-21 13:01:00,
2013-09-21 08:02:00,57.2,45.6,24.95,ESE,114,0.0,0.0,65,0.00,,---,0.00,VWS V14.01,2013-09-21 13:02:00,
2013-09-21 08:03:00,57.2,45.6,24.95,ESE,114,0.0,0.0,65,0.00,,---,0.00,VWS V14.01,2013-09-21 13:03:00,
2013-09-21 08:06:00,57.2,45.6,24.95,ESE,114,0.0,0.0,65,0.00,,---,0.00,VWS V14.01,2013-09-21 13:06:00,
2013-09-21 08:07:00,57.2,45.6,24.95,ESE,114,0.0,0.0,65,0.00,,---,0.00,VWS V14.01,2013-09-21 13:07:00,
2013-09-21 08:08:00,57.2,45.6,24.92,ESE,114,0.0,0.0,65,0.00,,---,0.00,VWS V14.01,2013-09-21 13:08:00,
2013-09-21 08:11:00,57.2,45.6,24.92,ESE,114,0.0,0.0,65,0.00,,---,0.00,VWS V14.01,2013-09-21 13:11:00,
2013-09-21 08:12:00,57.2,45.6,24.92,ESE,114,0.0,0.0,65,0.00,,---,0.00,VWS V14.01,2013-09-21 13:12:00,
2013-09-21 08:13:00,57.2,45.6,24.92,ESE,114,0.0,0.0,65,0.00,,---,0.00,VWS V14.01,2013-09-21 13:13:00,
2013-09-21 08:16:00,57.2,45.6,24.92,ESE,114,0.0,0.0,65,0.00,,---,0.00,VWS V14.01,2013-09-21 13:16:00,
2013-09-21 08:17:00,57.2,45.6,24.92,ESE,114,0.0,0.0,65,0.00,,---,0.00,VWS V14.01,2013-09-21 13:17:00,
2013-09-21 08:18:00,57.2,45.6,24.92,ESE,114,0.0,0.0,65,0.00,,---,0.00,VWS V14.01,2013-09-21 13:18:00,
2013-09-21 08:19:00,57.2,45.6,24.92,ESE,114,0.0,0.0,65,0.00,,---,0.00,VWS V14.01,2013-09-21 13:19:00,
2013-09-21 08:21:00,57.2,45.6,24.92,ESE,114,0.0,0.0,65,0.00,,---,0.00,VWS V14.01,2013-09-21 13:21:00,
2013-09-21 08:22:00,57.2,45.6,24.92,ESE,114,0.0,0.0,65,0.00,,---,0.00,VWS V14.01,2013-09-21 13:22:00,
2013-09-21 08:24:00,57.2,45.6,24.92,ESE,114,0.0,0.0,65,0.00,,---,0.00,VWS V14.01,2013-09-21 13:24:00,
2013-09-21 08:26:00,57.2,45.6,24.92,ESE,114,0.0,0.0,65,0.00,,---,0.00,VWS V14.01,2013-09-21 13:26:00,
2013-09-21 08:27:00,57.2,45.6,24.92,ESE,114,0.0,0.0,65,0.00,,---,0.00,VWS V14.01,2013-09-21 13:27:00,
2013-09-21 08:28:00,57.2,45.6,24.92,ESE,114,0.0,0.0,65,0.00,,---,0.00,VWS V14.01,2013-09-21 13:28:00,
2013-09-21 08:29:00,57.2,45.6,24.95,ESE,114,0.0,0.0,65,0.00,,---,0.00,VWS V14.01,2013-09-21 13:29:00,
2013-09-21 08:31:00,57.7,47.3,24.95,SE,138,2.7,2.7,68,0.00,,---,0.00,VWS V14.01,2013-09-21 13:31:00,
2013-09-21 08:33:00,57.7,47.3,24.95,SE,138,0.0,2.7,68,0.00,,---,0.00,VWS V14.01,2013-09-21 13:33:00,
2013-09-21 08:34:00,57.7,47.3,24.95,SE,138,0.0,0.0,68,0.00,,---,0.00,VWS V14.01,2013-09-21 13:34:00,
2013-09-21 08:36:00,57.7,47.3,24.95,SE,137,2.7,2.7,68,0.00,,---,0.00,VWS V14.01,2013-09-21 13:36:00,
2013-09-21 08:37:00,57.7,47.3,24.95,ESE,114,2.2,2.7,68,0.00,,---,0.00,VWS V14.01,2013-09-21 13:37:00,
2013-09-21 08:38:00,57.7,47.3,24.95,ESE,114,2.2,2.2,68,0.00,,---,0.00,VWS V14.01,2013-09-21 13:38:00,
2013-09-21 08:40:00,57.9,47.4,24.95,ESE,114,2.2,2.2,68,0.00,,---,0.00,VWS V14.01,2013-09-21 13:40:00,
2013-09-21 08:41:00,57.9,47.4,24.95,ESE,114,2.2,2.2,68,0.00,,---,0.00,VWS V14.01,2013-09-21 13:41:00,
2013-09-21 08:42:00,57.9,47.4,24.95,ESE,114,0.0,2.2,68,0.00,,---,0.00,VWS V14.01,2013-09-21 13:42:00,
2013-09-21 08:43:00,57.9,47.4,24.95,ESE,114,0.0,0.0,68,0.00,,---,0.00,VWS V14.01,2013-09-21 13:43:00,
2013-09-21 08:45:00,57.9,47.4,24.95,ESE,114,0.0,0.0,68,0.00,,---,0.00,VWS V14.01,2013-09-21 13:45:00,
2013-09-21 08:46:00,57.9,47.4,24.95,ESE,114,0.0,0.0,68,0.00,,---,0.00,VWS V14.01,2013-09-21 13:46:00,
2013-09-21 08:47:00,57.9,47.4,24.95,ESE,114,0.0,0.0,68,0.00,,---,0.00,VWS V14.01,2013-09-21 13:47:00,
2013-09-21 08:48:00,57.9,47.4,24.95,ESE,114,0.0,0.0,68,0.00,,---,0.00,VWS V14.01,2013-09-21 13:48:00,
2013-09-21 08:50:00,57.9,47.4,24.95,ESE,111,0.0,0.0,68,0.00,,---,0.00,VWS V14.01,2013-09-21 13:50:00,
2013-09-21 08:51:00,57.9,47.4,24.95,ESE,111,0.0,0.0,68,0.00,,---,0.00,VWS V14.01,2013-09-21 13:51:00,
2013-09-21 08:52:00,57.9,47.4,24.95,ESE,110,4.0,4.0,68,0.00,,---,0.00,VWS V14.01,2013-09-21 13:52:00,
2013-09-21 08:53:00,57.9,47.4,24.95,ESE,111,2.2,4.0,68,0.00,,---,0.00,VWS V14.01,2013-09-21 13:53:00,
2013-09-21 08:55:00,58.5,48.3,24.95,ESE,119,3.6,3.6,69,0.00,,---,0.00,VWS V14.01,2013-09-21 13:55:00,
2013-09-21 08:56:00,58.5,48.3,24.95,ESE,119,3.6,3.6,69,0.00,,---,0.00,VWS V14.01,2013-09-21 13:56:00,
2013-09-21 08:57:00,58.5,48.3,24.95,ESE,119,3.6,3.6,69,0.00,,---,0.00,VWS V14.01,2013-09-21 13:57:00,
2013-09-21 08:58:00,58.5,48.3,24.95,ESE,119,3.6,3.6,69,0.00,,---,0.00,VWS V14.01,2013-09-21 13:58:00,
2013-09-21 08:59:00,58.5,48.3,24.95,SE,125,2.2,2.2,69,0.00,,---,0.00,VWS V14.01,2013-09-21 13:59:00,
2013-09-21 09:00:00,58.8,48.7,24.95,SE,125,2.2,2.2,69,0.00,,---,0.00,VWS V14.01,2013-09-21 14:00:00,
2013-09-21 09:01:00,58.8,48.7,24.95,SE,125,2.2,2.2,69,0.00,,---,0.00,VWS V14.01,2013-09-21 14:01:00,
2013-09-21 09:02:00,58.8,48.7,24.95,ESE,119,2.7,2.7,69,0.00,,---,0.00,VWS V14.01,2013-09-21 14:02:00,
2013-09-21 09:03:00,58.8,48.7,24.95,East,92,3.1,3.1,69,0.00,,---,0.00,VWS V14.01,2013-09-21 14:03:00,
2013-09-21 09:04:00,58.8,48.7,24.95,East,92,3.1,3.1,69,0.00,,---,0.00,VWS V14.01,2013-09-21 14:04:00,
2013-09-21 09:05:00,59.0,48.5,24.95,East,92,3.1,3.1,68,0.00,,---,0.00,VWS V14.01,2013-09-21 14:05:00,
2013-09-21 09:06:00,59.0,48.5,24.95,SE,124,2.7,2.7,68,0.00,,---,0.00,VWS V14.01,2013-09-21 14:06:00,
2013-09-21 09:07:00,59.0,48.5,24.95,SE,124,2.7,2.7,68,0.00,,---,0.00,VWS V14.01,2013-09-21 14:07:00,
2013-09-21 09:08:00,59.0,48.1,24.95,ESE,109,2.7,2.7,67,0.00,,---,0.00,VWS V14.01,2013-09-21 14:08:00,
2013-09-21 09:09:00,59.0,48.1,24.95,ESE,109,2.7,2.7,67,0.00,,---,0.00,VWS V14.01,2013-09-21 14:09:00,
2013-09-21 09:11:00,59.0,48.1,24.95,SE,127,5.8,5.8,67,0.00,,---,0.00,VWS V14.01,2013-09-21 14:11:00,
2013-09-21 09:12:00,59.0,48.1,24.95,SSE,153,5.4,5.4,67,0.00,,---,0.00,VWS V14.01,2013-09-21 14:12:00,
2013-09-21 09:14:00,59.2,47.0,24.95,SSE,153,5.4,5.4,64,0.00,,---,0.00,VWS V14.01,2013-09-21 14:14:00,
2013-09-21 09:16:00,59.2,47.0,24.95,SE,139,3.6,3.6,64,0.00,,---,0.00,VWS V14.01,2013-09-21 14:16:00,
2013-09-21 09:17:00,59.2,47.0,24.95,SE,131,4.0,4.0,64,0.00,,---,0.00,VWS V14.01,2013-09-21 14:17:00,
2013-09-21 09:19:00,59.4,46.8,24.95,ESE,122,4.0,4.0,63,0.00,,---,0.00,VWS V14.01,2013-09-21 14:19:00,
2013-09-21 09:21:00,59.5,46.1,24.95,ESE,120,5.4,5.4,61,0.00,,---,0.00,VWS V14.01,2013-09-21 14:21:00,
2013-09-21 09:22:00,59.7,45.8,24.95,ESE,120,5.4,5.4,60,0.00,,---,0.00,VWS V14.01,2013-09-21 14:22:00,
2013-09-21 09:23:00,59.7,45.8,24.95,ESE,120,5.4,5.4,60,0.00,,---,0.00,VWS V14.01,2013-09-21 14:23:00,
2013-09-21 09:24:00,59.7,45.8,24.95,ESE,120,5.4,5.4,60,0.00,,---,0.00,VWS V14.01,2013-09-21 14:24:00,
2013-09-21 09:26:00,59.9,45.1,24.95,SE,130,4.0,4.0,58,0.00,,---,0.00,VWS V14.01,2013-09-21 14:26:00,
2013-09-21 09:27:00,59.9,45.1,24.95,ESE,116,3.1,4.0,58,0.00,,---,0.00,VWS V14.01,2013-09-21 14:27:00,
2013-09-21 09:28:00,59.9,45.1,24.95,ESE,106,4.0,4.0,58,0.00,,---,0.00,VWS V14.01,2013-09-21 14:28:00,
2013-09-21 09:29:00,59.9,45.1,24.95,ESE,106,4.0,4.0,58,0.00,,---,0.00,VWS V14.01,2013-09-21 14:29:00,
2013-09-21 09:30:00,59.9,45.1,24.95,ESE,106,4.0,4.0,58,0.00,,---,0.00,VWS V14.01,2013-09-21 14:30:00,
2013-09-21 09:31:00,60.3,44.5,24.95,ESE,106,4.0,4.0,56,0.00,,---,0.00,VWS V14.01,2013-09-21 14:31:00,
2013-09-21 09:33:00,60.4,45.2,24.98,ESE,106,4.0,4.0,57,0.00,,---,0.00,VWS V14.01,2013-09-21 14:33:00,
2013-09-21 09:34:00,60.4,45.2,24.98,ESE,106,4.0,4.0,57,0.00,,---,0.00,VWS V14.01,2013-09-21 14:34:00,
2013-09-21 09:35:00,60.4,45.2,24.98,NE,43,7.2,7.2,57,0.00,,---,0.00,VWS V14.01,2013-09-21 14:35:00,
2013-09-21 09:36:00,60.4,45.2,24.98,NE,43,7.2,7.2,57,0.00,,---,0.00,VWS V14.01,2013-09-21 14:36:00,
2013-09-21 09:38:00,60.4,44.7,24.98,NE,43,7.2,7.2,56,0.00,,---,0.00,VWS V14.01,2013-09-21 14:38:00,
2013-09-21 09:39:00,60.4,44.7,24.98,NE,43,7.2,7.2,56,0.00,,---,0.00,VWS V14.01,2013-09-21 14:39:00,
2013-09-21 09:40:00,60.4,44.2,24.98,NE,43,7.2,7.2,55,0.00,,---,0.00,VWS V14.01,2013-09-21 14:40:00,
2013-09-21 09:41:00,60.4,44.2,24.98,NE,43,7.2,7.2,55,0.00,,---,0.00,VWS V14.01,2013-09-21 14:41:00,
2013-09-21 09:43:00,60.4,44.2,24.98,NE,43,7.2,7.2,55,0.00,,---,0.00,VWS V14.01,2013-09-21 14:43:00,
2013-09-21 09:44:00,60.4,44.2,24.98,NE,43,7.2,7.2,55,0.00,,---,0.00,VWS V14.01,2013-09-21 14:44:00,
2013-09-21 09:46:00,60.4,44.2,24.98,NE,43,7.2,7.2,55,0.00,,---,0.00,VWS V14.01,2013-09-21 14:46:00,
2013-09-21 09:48:00,60.4,43.2,24.98,NE,43,7.2,7.2,53,0.00,,---,0.00,VWS V14.01,2013-09-21 14:48:00,
2013-09-21 09:49:00,60.4,43.2,24.98,NE,43,7.2,7.2,53,0.00,,---,0.00,VWS V14.01,2013-09-21 14:49:00,
2013-09-21 09:51:00,60.4,43.2,24.98,NE,43,7.2,7.2,53,0.00,,---,0.00,VWS V14.01,2013-09-21 14:51:00,
2013-09-21 09:52:00,60.4,43.2,24.98,NE,43,7.2,7.2,53,0.00,,---,0.00,VWS V14.01,2013-09-21 14:52:00,
2013-09-21 09:53:00,60.4,43.2,24.98,NE,43,7.2,7.2,53,0.00,,---,0.00,VWS V14.01,2013-09-21 14:53:00,
2013-09-21 09:54:00,60.4,43.2,24.98,NE,43,7.2,7.2,53,0.00,,---,0.00,VWS V14.01,2013-09-21 14:54:00,
2013-09-21 09:55:00,60.4,43.2,24.98,NE,43,7.2,7.2,53,0.00,,---,0.00,VWS V14.01,2013-09-21 14:55:00,
2013-09-21 09:56:00,60.4,43.2,24.98,NE,43,7.2,7.2,53,0.00,,---,0.00,VWS V14.01,2013-09-21 14:56:00,
2013-09-21 10:00:00,61.0,40.6,24.98,East,94,4.0,4.0,47,0.00,,---,0.00,VWS V14.01,2013-09-21 15:00:00,
2013-09-21 10:01:00,61.0,40.6,24.98,East,96,4.0,4.9,47,0.00,,---,0.00,VWS V14.01,2013-09-21 15:01:00,
2013-09-21 10:05:00,61.0,41.2,24.98,ESE,107,3.1,3.1,48,0.00,,---,0.00,VWS V14.01,2013-09-21 15:05:00,
2013-09-21 10:06:00,61.2,41.3,24.98,ENE,73,2.7,4.0,48,0.00,,---,0.00,VWS V14.01,2013-09-21 15:06:00,
2013-09-21 10:10:00,61.3,41.5,24.98,ENE,71,4.0,4.0,48,0.00,,---,0.00,VWS V14.01,2013-09-21 15:10:00,
2013-09-21 10:11:00,61.5,41.7,24.98,ENE,74,5.8,5.8,48,0.00,,---,0.00,VWS V14.01,2013-09-21 15:11:00,
2013-09-21 10:15:00,61.5,41.7,24.98,ENE,70,5.4,5.4,48,0.00,,---,0.00,VWS V14.01,2013-09-21 15:15:00,
2013-09-21 10:16:00,61.5,41.1,24.98,NNE,29,2.7,3.1,47,0.00,,---,0.00,VWS V14.01,2013-09-21 15:16:00,
2013-09-21 10:17:00,61.5,41.1,24.98,ENE,74,2.7,3.1,47,0.00,,---,0.00,VWS V14.01,2013-09-21 15:17:00,
2013-09-21 10:20:00,61.5,41.1,24.98,East,93,3.6,5.8,47,0.00,,---,0.00,VWS V14.01,2013-09-21 15:20:00,
2013-09-21 10:21:00,61.5,40.6,24.98,ENE,78,5.4,5.4,46,0.00,,---,0.00,VWS V14.01,2013-09-21 15:21:00,
2013-09-21 10:22:00,61.5,40.6,24.98,ESE,109,4.9,5.4,46,0.00,,---,0.00,VWS V14.01,2013-09-21 15:22:00,
2013-09-21 10:25:00,61.5,40.6,24.98,ESE,102,4.0,5.8,46,0.00,,---,0.00,VWS V14.01,2013-09-21 15:25:00,
2013-09-21 10:26:00,61.3,39.8,24.98,East,99,3.1,5.4,45,0.00,,---,0.00,VWS V14.01,2013-09-21 15:26:00,
2013-09-21 10:27:00,61.3,39.3,24.98,ESE,118,3.1,3.1,44,0.00,,---,0.00,VWS V14.01,2013-09-21 15:27:00,
2013-09-21 10:30:00,61.3,39.3,24.98,SE,132,3.6,4.0,44,0.00,,---,0.00,VWS V14.01,2013-09-21 15:30:00,
2013-09-21 10:31:00,61.3,39.3,24.98,ESE,103,5.8,6.3,44,0.00,,---,0.00,VWS V14.01,2013-09-21 15:31:00,
2013-09-21 10:32:00,61.3,38.7,24.98,East,96,4.9,5.8,43,0.00,,---,0.00,VWS V14.01,2013-09-21 15:32:00,
2013-09-21 10:35:00,61.3,39.3,24.98,ESE,117,2.7,6.3,44,0.00,,---,0.00,VWS V14.01,2013-09-21 15:35:00,
2013-09-21 10:36:00,61.3,39.8,24.98,ESE,121,4.0,4.0,45,0.00,,---,0.00,VWS V14.01,2013-09-21 15:36:00,
2013-09-21 10:37:00,61.5,40.0,24.98,ESE,104,5.4,5.4,45,0.00,,---,0.00,VWS V14.01,2013-09-21 15:37:00,
2013-09-21 10:40:00,61.5,39.4,24.98,ESE,102,3.1,5.4,44,0.00,,---,0.00,VWS V14.01,2013-09-21 15:40:00,
2013-09-21 10:41:00,61.5,40.0,24.98,ESE,121,5.4,5.8,45,0.00,,---,0.00,VWS V14.01,2013-09-21 15:41:00,
2013-09-21 10:42:00,61.5,40.0,24.98,SE,146,8.1,8.1,45,0.00,,---,0.00,VWS V14.01,2013-09-21 15:42:00,
2013-09-21 10:43:00,61.7,40.2,24.98,South,177,3.1,3.6,45,0.00,,---,0.00,VWS V14.01,2013-09-21 15:43:00,
2013-09-21 10:45:00,62.1,40.5,24.98,SSE,167,3.6,4.9,45,0.00,,---,0.00,VWS V14.01,2013-09-21 15:45:00,
2013-09-21 10:47:00,62.4,40.8,24.98,South,180,3.6,3.6,45,0.00,,---,0.00,VWS V14.01,2013-09-21 15:47:00,
2013-09-21 10:48:00,62.6,41.0,24.98,SSE,152,2.7,3.1,45,0.00,,---,0.00,VWS V14.01,2013-09-21 15:48:00,
2013-09-21 10:49:00,62.8,41.2,24.98,South,191,3.1,3.1,45,0.00,,---,0.00,VWS V14.01,2013-09-21 15:49:00,
2013-09-21 10:50:00,63.0,39.5,24.98,SE,127,2.2,3.1,42,0.00,,---,0.00,VWS V14.01,2013-09-21 15:50:00,
2013-09-21 10:52:00,63.1,39.1,24.98,SSE,154,3.1,3.6,41,0.00,,---,0.00,VWS V14.01,2013-09-21 15:52:00,
2013-09-21 10:53:00,63.1,39.7,24.98,ESE,117,3.1,3.1,42,0.00,,---,0.00,VWS V14.01,2013-09-21 15:53:00,
2013-09-21 10:54:00,63.1,38.5,24.98,SE,126,3.6,3.6,40,0.00,,---,0.00,VWS V14.01,2013-09-21 15:54:00,
2013-09-21 10:55:00,63.5,39.4,24.98,ESE,102,3.6,4.0,41,0.00,,---,0.00,VWS V14.01,2013-09-21 15:55:00,
2013-09-21 10:57:00,63.7,38.9,24.98,ESE,121,4.0,5.4,40,0.00,,---,0.00,VWS V14.01,2013-09-21 15:57:00,
2013-09-21 10:59:00,63.9,38.5,24.98,East,86,4.9,4.9,39,0.00,,---,0.00,VWS V14.01,2013-09-21 15:59:00,
2013-09-21 11:00:00,63.9,38.5,24.98,SE,128,5.4,5.8,39,0.00,,---,0.00,VWS V14.01,2013-09-21 16:00:00,
2013-09-21 11:02:00,63.9,39.1,24.98,ESE,121,3.1,4.0,40,0.00,,---,0.00,VWS V14.01,2013-09-21 16:02:00,
2013-09-21 11:04:00,63.7,38.3,24.98,ESE,110,3.1,6.7,39,0.00,,---,0.00,VWS V14.01,2013-09-21 16:04:00,
2013-09-21 11:05:00,63.7,38.3,24.98,ESE,109,3.6,4.0,39,0.00,,---,0.00,VWS V14.01,2013-09-21 16:05:00,
2013-09-21 11:06:00,63.5,37.5,24.98,ESE,123,5.4,5.4,38,0.00,,---,0.00,VWS V14.01,2013-09-21 16:06:00,
2013-09-21 11:07:00,63.3,37.3,24.98,ESE,123,2.2,4.0,38,0.00,,---,0.00,VWS V14.01,2013-09-21 16:07:00,
2013-09-21 11:08:00,63.3,37.3,24.98,ESE,123,0.0,0.0,38,0.00,,---,0.00,VWS V14.01,2013-09-21 16:08:00,
2013-09-21 11:09:00,63.3,38.0,24.98,ESE,109,2.7,2.7,39,0.00,,---,0.00,VWS V14.01,2013-09-21 16:09:00,
2013-09-21 11:10:00,63.3,38.0,24.98,ESE,109,2.2,2.7,39,0.00,,---,0.00,VWS V14.01,2013-09-21 16:10:00,
2013-09-21 11:11:00,63.3,38.0,24.98,ESE,109,0.0,0.0,39,0.00,,---,0.00,VWS V14.01,2013-09-21 16:11:00,
2013-09-21 11:12:00,63.9,39.1,24.98,ESE,109,0.0,0.0,40,0.00,,---,0.00,VWS V14.01,2013-09-21 16:12:00,
2013-09-21 11:13:00,64.0,39.2,24.98,ESE,109,0.0,0.0,40,0.00,,---,0.00,VWS V14.01,2013-09-21 16:13:00,
2013-09-21 11:15:00,65.1,40.9,24.98,ESE,106,3.6,4.0,41,0.00,,---,0.00,VWS V14.01,2013-09-21 16:15:00,
2013-09-21 11:16:00,65.8,38.2,24.98,ESE,120,4.9,4.9,36,0.00,,---,0.00,VWS V14.01,2013-09-21 16:16:00,
2013-09-21 11:17:00,66.6,38.1,24.98,ESE,105,2.7,3.6,35,0.00,,---,0.00,VWS V14.01,2013-09-21 16:17:00,
2013-09-21 11:18:00,67.1,38.6,24.98,ESE,104,2.7,2.7,35,0.00,,---,0.00,VWS V14.01,2013-09-21 16:18:00,
2013-09-21 11:20:00,67.8,38.5,24.98,East,92,0.0,3.6,34,0.00,,---,0.00,VWS V14.01,2013-09-21 16:20:00,
2013-09-21 11:21:00,68.2,38.0,24.98,East,92,0.0,0.0,33,0.00,,---,0.00,VWS V14.01,2013-09-21 16:21:00,
2013-09-21 11:22:00,68.9,38.6,24.98,SSE,161,3.6,3.6,33,0.00,,---,0.00,VWS V14.01,2013-09-21 16:22:00,
2013-09-21 11:23:00,69.3,39.0,24.98,SSE,163,3.1,3.6,33,0.00,,---,0.00,VWS V14.01,2013-09-21 16:23:00,
2013-09-21 11:25:00,70.2,39.0,24.98,South,176,5.4,5.4,32,0.00,,---,0.00,VWS V14.01,2013-09-21 16:25:00,
2013-09-21 11:26:00,70.0,36.3,24.98,South,191,5.8,5.8,29,0.00,,---,0.00,VWS V14.01,2013-09-21 16:26:00,
2013-09-21 11:27:00,70.3,35.7,24.98,South,173,3.1,3.1,28,0.00,,---,0.00,VWS V14.01,2013-09-21 16:27:00,
2013-09-21 11:28:00,70.3,36.6,24.98,South,187,5.4,5.4,29,0.00,,---,0.00,VWS V14.01,2013-09-21 16:28:00,
2013-09-21 11:31:00,70.5,36.8,24.98,WNW,290,2.7,3.6,29,0.00,,---,0.00,VWS V14.01,2013-09-21 16:31:00,
2013-09-21 11:33:00,70.7,36.0,24.98,SSE,153,2.7,5.8,28,0.00,,---,0.00,VWS V14.01,2013-09-21 16:33:00,
2013-09-21 11:36:00,71.2,35.6,24.98,SSW,203,0.0,4.0,27,0.00,,---,0.00,VWS V14.01,2013-09-21 16:36:00,
2013-09-21 11:38:00,71.4,36.7,24.98,South,175,6.3,6.3,28,0.00,,---,0.00,VWS V14.01,2013-09-21 16:38:00,
2013-09-21 11:39:00,71.4,35.7,24.98,SSW,192,2.7,4.9,27,0.00,,---,0.00,VWS V14.01,2013-09-21 16:39:00,
2013-09-21 11:41:00,71.4,35.7,24.98,SSW,205,3.6,4.0,27,0.00,,---,0.00,VWS V14.01,2013-09-21 16:41:00,
2013-09-21 11:43:00,71.6,35.9,24.98,SSE,162,3.1,3.1,27,0.00,,---,0.00,VWS V14.01,2013-09-21 16:43:00,
2013-09-21 11:44:00,71.8,37.0,24.98,SE,144,3.6,4.0,28,0.00,,---,0.00,VWS V14.01,2013-09-21 16:44:00,
2013-09-21 11:46:00,72.5,35.7,24.98,SSW,199,4.0,4.0,26,0.00,,---,0.00,VWS V14.01,2013-09-21 16:46:00,
2013-09-21 11:47:00,73.0,36.2,24.98,South,177,4.0,4.0,26,0.00,,---,0.00,VWS V14.01,2013-09-21 16:47:00,
2013-09-21 11:48:00,73.2,36.3,24.98,South,177,0.0,4.0,26,0.00,,---,0.00,VWS V14.01,2013-09-21 16:48:00,
2013-09-21 11:49:00,73.6,35.6,24.98,SSE,163,5.4,5.4,25,0.00,,---,0.00,VWS V14.01,2013-09-21 16:49:00,
2013-09-21 11:51:00,74.1,35.1,24.98,SSW,213,0.0,0.0,24,0.00,,---,0.00,VWS V14.01,2013-09-21 16:51:00,
2013-09-21 11:53:00,74.5,35.4,24.98,SSE,164,4.0,4.0,24,0.00,,---,0.00,VWS V14.01,2013-09-21 16:53:00,
2013-09-21 11:54:00,74.3,34.1,24.98,ESE,105,8.3,8.3,23,0.00,,---,0.00,VWS V14.01,2013-09-21 16:54:00,
2013-09-21 11:57:00,73.9,33.8,24.98,East,97,4.0,4.0,23,0.00,,---,0.00,VWS V14.01,2013-09-21 16:57:00,
2013-09-21 11:58:00,73.8,33.7,24.98,East,99,4.0,4.0,23,0.00,,---,0.00,VWS V14.01,2013-09-21 16:58:00,
2013-09-21 11:59:00,73.6,33.5,24.98,ESE,113,5.4,7.6,23,0.00,,---,0.00,VWS V14.01,2013-09-21 16:59:00,
2013-09-21 12:00:00,73.4,33.4,24.98,ESE,120,4.0,5.8,23,0.00,,---,0.00,VWS V14.01,2013-09-21 17:00:00,
2013-09-21 12:02:00,72.9,34.0,24.98,ESE,110,4.0,4.0,24,0.00,,---,0.00,VWS V14.01,2013-09-21 17:02:00,
2013-09-21 12:03:00,72.3,33.5,24.98,ESE,117,3.6,3.6,24,0.00,,---,0.00,VWS V14.01,2013-09-21 17:03:00,
2013-09-21 12:04:00,72.0,33.2,24.98,SE,128,2.7,5.4,24,0.00,,---,0.00,VWS V14.01,2013-09-21 17:04:00,
2013-09-21 12:05:00,71.8,33.1,24.98,SE,127,4.0,4.0,24,0.00,,---,0.00,VWS V14.01,2013-09-21 17:05:00,
2013-09-21 12:07:00,71.2,33.6,24.98,ENE,71,0.0,0.0,25,0.00,,---,0.00,VWS V14.01,2013-09-21 17:07:00,
2013-09-21 12:08:00,71.2,34.6,24.98,ENE,71,0.0,0.0,26,0.00,,---,0.00,VWS V14.01,2013-09-21 17:08:00,
2013-09-21 12:10:00,71.2,34.6,24.98,South,186,5.8,5.8,26,0.00,,---,0.00,VWS V14.01,2013-09-21 17:10:00,
2013-09-21 12:12:00,71.8,34.1,24.98,SSW,210,5.4,5.4,25,0.00,,---,0.00,VWS V14.01,2013-09-21 17:12:00,
2013-09-21 12:14:00,72.3,34.6,24.98,South,174,5.8,5.8,25,0.00,,---,0.00,VWS V14.01,2013-09-21 17:14:00,
2013-09-21 12:15:00,72.9,35.0,24.98,SSW,211,4.0,4.0,25,0.00,,---,0.00,VWS V14.01,2013-09-21 17:15:00,
2013-09-21 12:16:00,73.2,35.3,24.98,SSW,212,4.0,4.0,25,0.00,,---,0.00,VWS V14.01,2013-09-21 17:16:00,
2013-09-21 12:18:00,73.9,34.9,24.98,SSE,165,4.9,6.7,24,0.00,,---,0.00,VWS V14.01,2013-09-21 17:18:00,
2013-09-21 12:19:00,74.1,34.0,24.98,SE,144,5.8,8.7,23,0.00,,---,0.00,VWS V14.01,2013-09-21 17:19:00,
2013-09-21 12:21:00,74.1,32.9,24.98,SE,144,3.1,4.0,22,0.00,,---,0.00,VWS V14.01,2013-09-21 17:21:00,
2013-09-21 12:23:00,73.4,33.4,24.98,SE,126,8.1,8.1,23,0.00,,---,0.00,VWS V14.01,2013-09-21 17:23:00,
2013-09-21 12:24:00,72.9,32.9,24.98,SE,131,8.3,8.3,23,0.00,,---,0.00,VWS V14.01,2013-09-21 17:24:00,
2013-09-21 12:26:00,72.9,34.0,24.98,South,177,4.5,5.8,24,0.00,,---,0.00,VWS V14.01,2013-09-21 17:26:00,
2013-09-21 12:27:00,72.7,33.8,24.98,South,186,4.0,8.3,24,0.00,,---,0.00,VWS V14.01,2013-09-21 17:27:00,
2013-09-21 12:28:00,72.5,33.7,24.98,SSW,201,4.9,7.6,24,0.00,,---,0.00,VWS V14.01,2013-09-21 17:28:00,
2013-09-21 12:29:00,72.5,33.7,24.98,SSE,168,5.4,5.4,24,0.00,,---,0.00,VWS V14.01,2013-09-21 17:29:00,
2013-09-21 12:32:00,72.5,33.7,24.98,SE,139,7.6,7.6,24,0.00,,---,0.00,VWS V14.01,2013-09-21 17:32:00,
2013-09-21 12:33:00,72.7,33.8,24.98,South,182,2.2,4.9,24,0.00,,---,0.00,VWS V14.01,2013-09-21 17:33:00,
2013-09-21 12:34:00,72.7,33.8,24.98,South,182,2.2,4.9,24,0.00,,---,0.00,VWS V14.01,2013-09-21 17:34:00,
2013-09-21 12:37:00,73.0,34.1,24.98,South,183,7.6,7.6,24,0.00,,---,0.00,VWS V14.01,2013-09-21 17:37:00,
2013-09-21 12:39:00,73.2,33.2,24.98,South,191,4.9,6.3,23,0.00,,---,0.00,VWS V14.01,2013-09-21 17:39:00,
2013-09-21 12:42:00,73.2,33.2,24.98,East,79,2.2,4.9,23,0.00,,---,0.00,VWS V14.01,2013-09-21 17:42:00,
2013-09-21 12:43:00,73.2,33.2,24.98,East,88,0.0,0.0,23,0.00,,---,0.00,VWS V14.01,2013-09-21 17:43:00,
2013-09-21 12:44:00,73.4,33.4,24.98,SE,131,4.0,4.9,23,0.00,,---,0.00,VWS V14.01,2013-09-21 17:44:00,
2013-09-21 12:45:00,73.4,32.3,24.98,SE,142,4.5,5.4,22,0.00,,---,0.00,VWS V14.01,2013-09-21 17:45:00,
2013-09-21 12:48:00,73.4,32.3,24.98,South,179,5.8,8.1,22,0.00,,---,0.00,VWS V14.01,2013-09-21 17:48:00,
2013-09-21 12:49:00,73.2,33.2,24.98,SSW,198,8.3,8.7,23,0.00,,---,0.00,VWS V14.01,2013-09-21 17:49:00,
2013-09-21 12:50:00,73.2,33.2,24.98,SSW,204,6.3,6.3,23,0.00,,---,0.00,VWS V14.01,2013-09-21 17:50:00,
2013-09-21 12:53:00,73.2,33.2,24.98,South,174,6.3,7.6,23,0.00,,---,0.00,VWS V14.01,2013-09-21 17:53:00,
2013-09-21 12:54:00,73.4,32.3,24.98,South,179,5.8,8.3,22,0.00,,---,0.00,VWS V14.01,2013-09-21 17:54:00,
2013-09-21 12:55:00,73.4,33.4,24.98,SSW,200,7.6,7.6,23,0.00,,---,0.00,VWS V14.01,2013-09-21 17:55:00,
2013-09-21 12:58:00,73.0,33.1,24.98,SSW,209,6.3,6.3,23,0.00,,---,0.00,VWS V14.01,2013-09-21 17:58:00,
2013-09-21 12:59:00,72.9,32.9,24.98,SW,216,3.6,5.4,23,0.00,,---,0.00,VWS V14.01,2013-09-21 17:59:00,
2013-09-21 13:01:00,72.7,32.8,24.98,SSE,155,7.6,7.6,23,0.00,,---,0.00,VWS V14.01,2013-09-21 18:01:00,
2013-09-21 13:03:00,72.3,32.5,24.98,South,173,3.1,7.6,23,0.00,,---,0.00,VWS V14.01,2013-09-21 18:03:00,
2013-09-21 13:04:00,72.1,32.3,24.98,SSE,167,4.9,4.9,23,0.00,,---,0.00,VWS V14.01,2013-09-21 18:04:00,
2013-09-21 13:05:00,72.3,33.5,24.98,SSE,167,6.3,10.1,24,0.00,,---,0.00,VWS V14.01,2013-09-21 18:05:00,
2013-09-21 13:06:00,72.5,32.6,24.98,South,169,8.1,8.1,23,0.00,,---,0.00,VWS V14.01,2013-09-21 18:06:00,
2013-09-21 13:08:00,72.9,32.9,24.98,SSW,200,3.6,3.6,23,0.00,,---,0.00,VWS V14.01,2013-09-21 18:08:00,
2013-09-21 13:09:00,72.9,32.9,24.98,SSW,200,3.6,3.6,23,0.00,,---,0.00,VWS V14.01,2013-09-21 18:09:00,
2013-09-21 13:10:00,73.0,33.1,24.98,South,190,4.9,5.8,23,0.00,,---,0.00,VWS V14.01,2013-09-21 18:10:00,
2013-09-21 13:11:00,73.2,33.2,24.98,SSW,200,5.8,7.6,23,0.00,,---,0.00,VWS V14.01,2013-09-21 18:11:00,
2013-09-21 13:14:00,73.6,32.4,24.98,SSW,203,8.1,8.1,22,0.00,,---,0.00,VWS V14.01,2013-09-21 18:14:00,
2013-09-21 13:15:00,73.8,32.6,24.98,South,177,8.1,8.1,22,0.00,,---,0.00,VWS V14.01,2013-09-21 18:15:00,
2013-09-21 13:17:00,73.8,33.7,24.98,SE,146,5.8,6.7,23,0.00,,---,0.00,VWS V14.01,2013-09-21 18:17:00,
2013-09-21 13:19:00,73.6,32.4,24.98,WSW,246,3.6,5.4,22,0.00,,---,0.00,VWS V14.01,2013-09-21 18:19:00,
2013-09-21 13:20:00,73.4,32.3,24.98,South,188,4.0,4.9,22,0.00,,---,0.00,VWS V14.01,2013-09-21 18:20:00,
2013-09-21 13:22:00,73.0,33.1,24.98,SE,130,3.1,6.3,23,0.00,,---,0.00,VWS V14.01,2013-09-21 18:22:00,
2013-09-21 13:24:00,72.7,32.8,24.98,SSE,150,5.8,8.1,23,0.00,,---,0.00,VWS V14.01,2013-09-21 18:24:00,
2013-09-21 13:25:00,72.7,32.8,24.98,SE,136,8.1,8.1,23,0.00,,---,0.00,VWS V14.01,2013-09-21 18:25:00,
2013-09-21 13:26:00,72.7,32.8,24.98,SE,141,8.3,8.3,23,0.00,,---,0.00,VWS V14.01,2013-09-21 18:26:00,
2013-09-21 13:28:00,72.7,32.8,24.98,South,183,5.4,5.4,23,0.00,,---,0.00,VWS V14.01,2013-09-21 18:28:00,
2013-09-21 13:30:00,72.9,32.9,24.98,South,180,6.3,6.3,23,0.00,,---,0.00,VWS V14.01,2013-09-21 18:30:00,
2013-09-21 13:31:00,72.9,32.9,24.98,South,190,4.0,5.8,23,0.00,,---,0.00,VWS V14.01,2013-09-21 18:31:00,
2013-09-21 13:33:00,73.0,33.1,24.98,East,97,3.1,5.4,23,0.00,,---,0.00,VWS V14.01,2013-09-21 18:33:00,
2013-09-21 13:35:00,73.0,32.0,24.98,ESE,116,4.9,5.8,22,0.00,,---,0.00,VWS V14.01,2013-09-21 18:35:00,
2013-09-21 13:36:00,73.0,33.1,24.98,ENE,77,3.6,6.3,23,0.00,,---,0.00,VWS V14.01,2013-09-21 18:36:00,
2013-09-21 13:38:00,73.0,33.1,24.98,SE,129,3.6,5.8,23,0.00,,---,0.00,VWS V14.01,2013-09-21 18:38:00,
2013-09-21 13:40:00,73.0,33.1,24.98,SE,130,6.3,7.6,23,0.00,,---,0.00,VWS V14.01,2013-09-21 18:40:00,
2013-09-21 13:41:00,72.9,32.9,24.98,ESE,105,8.1,8.1,23,0.00,,---,0.00,VWS V14.01,2013-09-21 18:41:00,
2013-09-21 13:44:00,72.9,32.9,24.98,SSE,168,5.8,8.1,23,0.00,,---,0.00,VWS V14.01,2013-09-21 18:44:00,
2013-09-21 13:45:00,73.0,33.1,24.98,South,184,3.1,4.9,23,0.00,,---,0.00,VWS V14.01,2013-09-21 18:45:00,
2013-09-21 13:46:00,73.4,33.4,24.98,South,171,5.8,5.8,23,0.00,,---,0.00,VWS V14.01,2013-09-21 18:46:00,
2013-09-21 13:49:00,73.9,32.7,24.98,South,178,2.7,4.0,22,0.00,,---,0.00,VWS V14.01,2013-09-21 18:49:00,
2013-09-21 13:50:00,74.1,32.9,24.98,SE,143,5.8,5.8,22,0.00,,---,0.00,VWS V14.01,2013-09-21 18:50:00,
2013-09-21 13:51:00,74.3,33.0,24.98,SE,144,5.4,8.1,22,0.00,,---,0.00,VWS V14.01,2013-09-21 18:51:00,
2013-09-21 13:54:00,74.3,33.0,24.98,SSW,197,5.4,5.4,22,0.00,,---,0.00,VWS V14.01,2013-09-21 18:54:00,
2013-09-21 13:55:00,74.3,33.0,24.98,SSE,165,5.8,5.8,22,0.00,,---,0.00,VWS V14.01,2013-09-21 18:55:00,
2013-09-21 13:56:00,74.3,33.0,24.98,SSE,165,5.8,5.8,22,0.00,,---,0.00,VWS V14.01,2013-09-21 18:56:00,
2013-09-21 13:57:00,73.9,32.7,24.98,SSE,163,5.8,5.8,22,0.00,,---,0.00,VWS V14.01,2013-09-21 18:57:00,
2013-09-21 13:59:00,73.4,32.3,24.98,SSE,162,2.7,4.9,22,0.00,,---,0.00,VWS V14.01,2013-09-21 18:59:00,
2013-09-21 14:01:00,73.2,32.1,24.98,SW,216,3.6,4.9,22,0.00,,---,0.00,VWS V14.01,2013-09-21 19:01:00,
2013-09-21 14:02:00,73.4,32.3,24.98,South,183,5.4,5.4,22,0.00,,---,0.00,VWS V14.01,2013-09-21 19:02:00,
2013-09-21 14:04:00,74.3,33.0,24.98,South,184,7.6,7.6,22,0.00,,---,0.00,VWS V14.01,2013-09-21 19:04:00,
2013-09-21 14:06:00,74.7,33.3,24.98,WSW,245,4.0,5.4,22,0.00,,---,0.00,VWS V14.01,2013-09-21 19:06:00,
2013-09-21 14:07:00,75.0,33.6,24.98,South,190,6.3,7.6,22,0.00,,---,0.00,VWS V14.01,2013-09-21 19:07:00,
2013-09-21 14:09:00,74.5,33.2,24.98,SSE,160,4.0,6.3,22,0.00,,---,0.00,VWS V14.01,2013-09-21 19:09:00,
2013-09-21 14:11:00,73.6,32.4,24.98,SSE,159,6.3,8.1,22,0.00,,---,0.00,VWS V14.01,2013-09-21 19:11:00,
2013-09-21 14:12:00,73.2,32.1,24.98,South,181,3.1,8.3,22,0.00,,---,0.00,VWS V14.01,2013-09-21 19:12:00,
2013-09-21 14:14:00,73.0,33.1,24.98,SW,223,3.6,4.5,23,0.00,,---,0.00,VWS V14.01,2013-09-21 19:14:00,
2013-09-21 14:16:00,73.6,32.4,24.98,SE,136,5.8,5.8,22,0.00,,---,0.00,VWS V14.01,2013-09-21 19:16:00,
2013-09-21 14:17:00,74.1,32.9,24.98,SSE,147,7.6,7.6,22,0.00,,---,0.00,VWS V14.01,2013-09-21 19:17:00,
2013-09-21 14:20:00,74.1,32.9,24.98,SE,144,6.3,6.3,22,0.00,,---,0.00,VWS V14.01,2013-09-21 19:20:00,
2013-09-21 14:21:00,73.8,32.6,24.98,SE,129,5.4,8.1,22,0.00,,---,0.00,VWS V14.01,2013-09-21 19:21:00,
2013-09-21 14:22:00,73.8,32.6,24.98,SE,140,8.7,8.7,22,0.00,,---,0.00,VWS V14.01,2013-09-21 19:22:00,
2013-09-21 14:23:00,73.6,32.4,24.98,SSE,166,5.4,8.3,22,0.00,,---,0.00,VWS V14.01,2013-09-21 19:23:00,
2013-09-21 14:25:00,73.4,32.3,24.98,SE,127,3.1,7.2,22,0.00,,---,0.00,VWS V14.01,2013-09-21 19:25:00,
2013-09-21 14:26:00,73.2,32.1,24.98,ESE,117,7.2,7.2,22,0.00,,---,0.00,VWS V14.01,2013-09-21 19:26:00,
2013-09-21 14:27:00,73.0,32.0,24.98,SE,125,5.8,7.6,22,0.00,,---,0.00,VWS V14.01,2013-09-21 19:27:00,
2013-09-21 14:28:00,72.7,31.7,24.98,SE,136,3.6,4.5,22,0.00,,---,0.00,VWS V14.01,2013-09-21 19:28:00,
2013-09-21 14:29:00,72.3,31.4,24.98,SE,139,5.4,6.3,22,0.00,,---,0.00,VWS V14.01,2013-09-21 19:29:00,
2013-09-21 14:30:00,72.1,31.2,24.98,SSE,167,4.9,7.6,22,0.00,,---,0.00,VWS V14.01,2013-09-21 19:30:00,
2013-09-21 14:31:00,71.6,30.8,24.98,SSE,166,4.0,4.9,22,0.00,,---,0.00,VWS V14.01,2013-09-21 19:31:00,
2013-09-21 14:32:00,71.2,31.6,24.98,SSE,166,2.2,2.2,23,0.00,,---,0.00,VWS V14.01,2013-09-21 19:32:00,
2013-09-21 14:34:00,71.1,31.4,24.98,SSE,166,0.0,2.2,23,0.00,,---,0.00,VWS V14.01,2013-09-21 19:34:00,
2013-09-21 14:35:00,70.9,31.3,24.98,SSE,164,6.3,6.3,23,0.00,,---,0.00,VWS V14.01,2013-09-21 19:35:00,
2013-09-21 14:36:00,70.5,31.0,24.98,SSW,196,5.8,6.3,23,0.00,,---,0.00,VWS V14.01,2013-09-21 19:36:00,
2013-09-21 14:38:00,70.3,30.8,24.98,SE,139,6.3,8.3,23,0.00,,---,0.00,VWS V14.01,2013-09-21 19:38:00,
2013-09-21 14:39:00,70.3,30.8,24.98,ESE,119,5.4,8.1,23,0.00,,---,0.00,VWS V14.01,2013-09-21 19:39:00,
2013-09-21 14:40:00,70.3,31.9,24.98,ESE,117,8.3,8.3,24,0.00,,---,0.00,VWS V14.01,2013-09-21 19:40:00,
2013-09-21 14:41:00,70.5,31.0,24.98,ESE,106,3.6,8.3,23,0.00,,---,0.00,VWS V14.01,2013-09-21 19:41:00,
2013-09-21 14:43:00,70.9,31.3,24.98,SSE,148,6.3,8.1,23,0.00,,---,0.00,VWS V14.01,2013-09-21 19:43:00,
2013-09-21 14:44:00,71.1,31.4,24.98,SSE,152,5.4,5.4,23,0.00,,---,0.00,VWS V14.01,2013-09-21 19:44:00,
2013-09-21 14:45:00,71.1,31.4,24.98,SSE,149,4.0,4.9,23,0.00,,---,0.00,VWS V14.01,2013-09-21 19:45:00,
2013-09-21 14:46:00,70.9,31.3,24.98,SSE,149,0.0,4.9,23,0.00,,---,0.00,VWS V14.01,2013-09-21 19:46:00,
2013-09-21 14:48:00,70.5,31.0,24.95,SE,136,2.7,2.7,23,0.00,,---,0.00,VWS V14.01,2013-09-21 19:48:00,
2013-09-21 14:50:00,70.3,30.8,24.95,East,82,3.1,5.4,23,0.00,,---,0.00,VWS V14.01,2013-09-21 19:50:00,
2013-09-21 14:51:00,70.2,30.7,24.95,East,82,2.2,3.1,23,0.00,,---,0.00,VWS V14.01,2013-09-21 19:51:00,
2013-09-21 14:53:00,70.0,30.5,24.95,ESE,111,4.0,4.0,23,0.00,,---,0.00,VWS V14.01,2013-09-21 19:53:00,
2013-09-21 14:55:00,70.0,31.6,24.95,SE,134,5.8,5.8,24,0.00,,---,0.00,VWS V14.01,2013-09-21 19:55:00,
2013-09-21 14:56:00,70.0,30.5,24.95,East,89,8.3,8.3,23,0.00,,---,0.00,VWS V14.01,2013-09-21 19:56:00,
2013-09-21 14:59:00,70.3,30.8,24.95,ESE,113,4.0,4.9,23,0.00,,---,0.00,VWS V14.01,2013-09-21 19:59:00,
2013-09-21 15:00:00,70.3,30.8,24.95,ESE,108,4.0,5.4,23,0.00,,---,0.00,VWS V14.01,2013-09-21 20:00:00,
2013-09-21 15:02:00,70.3,30.8,24.95,SSE,149,3.6,4.0,23,0.00,,---,0.00,VWS V14.01,2013-09-21 20:02:00,
2013-09-21 15:04:00,70.5,32.0,24.95,SSE,163,5.4,5.8,24,0.00,,---,0.00,VWS V14.01,2013-09-21 20:04:00,
2013-09-21 15:06:00,70.9,31.3,24.95,South,186,6.3,6.3,23,0.00,,---,0.00,VWS V14.01,2013-09-21 20:06:00,
2013-09-21 15:07:00,70.9,31.3,24.95,SSE,168,7.6,7.6,23,0.00,,---,0.00,VWS V14.01,2013-09-21 20:07:00,
2013-09-21 15:09:00,70.9,31.3,24.95,WSW,237,2.7,4.0,23,0.00,,---,0.00,VWS V14.01,2013-09-21 20:09:00,
2013-09-21 15:11:00,71.1,31.4,24.95,South,175,3.1,4.0,23,0.00,,---,0.00,VWS V14.01,2013-09-21 20:11:00,
2013-09-21 15:12:00,71.1,31.4,24.95,South,190,2.7,4.0,23,0.00,,---,0.00,VWS V14.01,2013-09-21 20:12:00,
2013-09-21 15:14:00,71.1,31.4,24.95,ENE,76,3.6,4.0,23,0.00,,---,0.00,VWS V14.01,2013-09-21 20:14:00,
2013-09-21 15:16:00,71.8,30.9,24.95,WSW,239,2.7,2.7,22,0.00,,---,0.00,VWS V14.01,2013-09-21 20:16:00,
2013-09-21 15:17:00,72.0,31.1,24.95,South,184,3.6,6.3,22,0.00,,---,0.00,VWS V14.01,2013-09-21 20:17:00,
2013-09-21 15:19:00,72.7,32.8,24.95,South,175,3.1,4.9,23,0.00,,---,0.00,VWS V14.01,2013-09-21 20:19:00,
2013-09-21 15:20:00,73.0,32.0,24.95,ESE,115,2.7,4.0,22,0.00,,---,0.00,VWS V14.01,2013-09-21 20:20:00,
2013-09-21 15:21:00,73.6,32.4,24.95,SSW,197,5.4,5.4,22,0.00,,---,0.00,VWS V14.01,2013-09-21 20:21:00,
2013-09-21 15:22:00,73.9,32.7,24.95,SE,136,5.4,5.8,22,0.00,,---,0.00,VWS V14.01,2013-09-21 20:22:00,
2013-09-21 15:24:00,74.5,32.0,24.95,SSW,192,7.6,7.6,21,0.00,,---,0.00,VWS V14.01,2013-09-21 20:24:00,
2013-09-21 15:25:00,74.5,32.0,24.95,SSW,199,5.8,5.8,21,0.00,,---,0.00,VWS V14.01,2013-09-21 20:25:00,
2013-09-21 15:26:00,74.3,31.9,24.95,SSW,211,5.4,5.4,21,0.00,,---,0.00,VWS V14.01,2013-09-21 20:26:00,
2013-09-21 15:27:00,74.1,31.7,24.95,SSW,195,5.4,5.4,21,0.00,,---,0.00,VWS V14.01,2013-09-21 20:27:00,
2013-09-21 15:30:00,73.6,31.3,24.95,SW,214,3.1,3.1,21,0.00,,---,0.00,VWS V14.01,2013-09-21 20:30:00,
2013-09-21 15:31:00,73.4,31.1,24.95,SW,223,3.1,3.1,21,0.00,,---,0.00,VWS V14.01,2013-09-21 20:31:00,
2013-09-21 15:32:00,73.4,32.3,24.95,SSW,206,4.0,4.9,22,0.00,,---,0.00,VWS V14.01,2013-09-21 20:32:00,
2013-09-21 15:35:00,73.9,32.7,24.95,SE,135,6.3,8.3,22,0.00,,---,0.00,VWS V14.01,2013-09-21 20:35:00,
2013-09-21 15:36:00,73.9,32.7,24.95,SE,133,5.4,7.2,22,0.00,,---,0.00,VWS V14.01,2013-09-21 20:36:00,
2013-09-21 15:37:00,73.9,32.7,24.95,ESE,112,6.3,6.3,22,0.00,,---,0.00,VWS V14.01,2013-09-21 20:37:00,
2013-09-21 15:40:00,73.4,32.3,24.95,ESE,117,0.0,0.0,22,0.00,,---,0.00,VWS V14.01,2013-09-21 20:40:00,
2013-09-21 15:41:00,73.2,32.1,24.95,SSE,151,0.0,0.0,22,0.00,,---,0.00,VWS V14.01,2013-09-21 20:41:00,
2013-09-21 15:42:00,73.0,32.0,24.95,South,187,5.4,6.3,22,0.00,,---,0.00,VWS V14.01,2013-09-21 20:42:00,
2013-09-21 15:45:00,72.3,31.4,24.95,SE,139,5.8,6.3,22,0.00,,---,0.00,VWS V14.01,2013-09-21 20:45:00,
2013-09-21 15:46:00,72.1,31.2,24.95,SSE,156,3.6,4.9,22,0.00,,---,0.00,VWS V14.01,2013-09-21 20:46:00,
2013-09-21 15:47:00,71.8,30.9,24.95,SE,144,4.0,5.8,22,0.00,,---,0.00,VWS V14.01,2013-09-21 20:47:00,
2013-09-21 15:50:00,72.1,31.2,24.95,South,169,4.0,5.4,22,0.00,,---,0.00,VWS V14.01,2013-09-21 20:50:00,
2013-09-21 15:51:00,72.3,31.4,24.95,SE,143,6.3,6.3,22,0.00,,---,0.00,VWS V14.01,2013-09-21 20:51:00,
2013-09-21 15:53:00,72.7,31.7,24.95,SE,140,4.0,5.4,22,0.00,,---,0.00,VWS V14.01,2013-09-21 20:53:00,
2013-09-21 15:55:00,72.7,31.7,24.95,South,172,0.0,0.0,22,0.00,,---,0.00,VWS V14.01,2013-09-21 20:55:00,
2013-09-21 15:56:00,72.7,31.7,24.95,South,186,2.7,5.4,22,0.00,,---,0.00,VWS V14.01,2013-09-21 20:56:00,
2013-09-21 15:58:00,72.3,31.4,24.95,SSW,208,0.0,0.0,22,0.00,,---,0.00,VWS V14.01,2013-09-21 20:58:00,
2013-09-21 16:00:00,72.1,31.2,24.95,WSW,252,2.7,3.6,22,0.00,,---,0.00,VWS V14.01,2013-09-21 21:00:00,
2013-09-21 16:01:00,72.1,31.2,24.95,WSW,257,2.7,3.1,22,0.00,,---,0.00,VWS V14.01,2013-09-21 21:01:00,
2013-09-21 16:03:00,72.3,31.4,24.95,WNW,289,2.7,2.7,22,0.00,,---,0.00,VWS V14.01,2013-09-21 21:03:00,
2013-09-21 16:06:00,73.4,32.3,24.95,WSW,247,4.0,4.5,22,0.00,,---,0.00,VWS V14.01,2013-09-21 21:06:00,
2013-09-21 16:07:00,73.9,32.7,24.95,WSW,249,4.0,5.4,22,0.00,,---,0.00,VWS V14.01,2013-09-21 21:07:00,
2013-09-21 16:08:00,74.1,32.9,24.95,West,279,3.1,3.6,22,0.00,,---,0.00,VWS V14.01,2013-09-21 21:08:00,
2013-09-21 16:11:00,75.2,32.6,24.95,ESE,106,5.8,8.7,21,0.00,,---,0.00,VWS V14.01,2013-09-21 21:11:00,
2013-09-21 16:12:00,75.4,32.8,24.95,ESE,119,4.9,6.3,21,0.00,,---,0.00,VWS V14.01,2013-09-21 21:12:00,
2013-09-21 16:13:00,75.4,32.8,24.95,SE,145,3.6,5.8,21,0.00,,---,0.00,VWS V14.01,2013-09-21 21:13:00,
2013-09-21 16:14:00,75.4,32.8,24.95,South,181,4.9,4.9,21,0.00,,---,0.00,VWS V14.01,2013-09-21 21:14:00,
2013-09-21 16:16:00,75.2,32.6,24.95,ESE,118,6.3,9.6,21,0.00,,---,0.00,VWS V14.01,2013-09-21 21:16:00,
2013-09-21 16:17:00,74.8,32.3,24.95,SSE,153,5.8,8.7,21,0.00,,---,0.00,VWS V14.01,2013-09-21 21:17:00,
2013-09-21 16:18:00,74.7,32.2,24.95,SSE,150,4.0,7.6,21,0.00,,---,0.00,VWS V14.01,2013-09-21 21:18:00,
2013-09-21 16:19:00,74.7,32.2,24.95,SSE,158,8.1,8.1,21,0.00,,---,0.00,VWS V14.01,2013-09-21 21:19:00,
2013-09-21 16:21:00,73.9,31.6,24.95,SSW,193,7.6,7.6,21,0.00,,---,0.00,VWS V14.01,2013-09-21 21:21:00,
2013-09-21 16:22:00,73.8,31.4,24.95,SSE,157,5.8,5.8,21,0.00,,---,0.00,VWS V14.01,2013-09-21 21:22:00,
2013-09-21 16:23:00,73.8,31.4,24.95,SSE,157,8.1,8.1,21,0.00,,---,0.00,VWS V14.01,2013-09-21 21:23:00,
2013-09-21 16:24:00,73.6,31.3,24.95,SSW,197,5.4,5.4,21,0.00,,---,0.00,VWS V14.01,2013-09-21 21:24:00,
2013-09-21 16:26:00,73.2,32.1,24.95,South,172,5.8,5.8,22,0.00,,---,0.00,VWS V14.01,2013-09-21 21:26:00,
2013-09-21 16:27:00,73.2,32.1,24.95,South,178,5.4,5.8,22,0.00,,---,0.00,VWS V14.01,2013-09-21 21:27:00,
2013-09-21 16:28:00,72.9,31.8,24.95,South,172,4.5,4.9,22,0.00,,---,0.00,VWS V14.01,2013-09-21 21:28:00,
2013-09-21 16:30:00,72.3,31.4,24.95,SSE,168,4.9,6.3,22,0.00,,---,0.00,VWS V14.01,2013-09-21 21:30:00,
2013-09-21 16:31:00,71.8,30.9,24.95,South,171,5.8,5.8,22,0.00,,---,0.00,VWS V14.01,2013-09-21 21:31:00,
2013-09-21 16:32:00,71.8,30.9,24.95,South,170,5.4,5.8,22,0.00,,---,0.00,VWS V14.01,2013-09-21 21:32:00,
2013-09-21 16:33:00,71.6,30.8,24.95,SSE,159,4.0,5.4,22,0.00,,---,0.00,VWS V14.01,2013-09-21 21:33:00,
2013-09-21 16:35:00,71.2,31.6,24.95,SE,131,4.0,4.0,23,0.00,,---,0.00,VWS V14.01,2013-09-21 21:35:00,
2013-09-21 16:36:00,70.9,30.2,24.95,SSW,196,2.7,2.7,22,0.00,,---,0.00,VWS V14.01,2013-09-21 21:36:00,
2013-09-21 16:38:00,70.5,29.9,24.95,SSW,194,3.6,4.0,22,0.00,,---,0.00,VWS V14.01,2013-09-21 21:38:00,
2013-09-21 16:40:00,70.2,29.6,24.95,SSW,194,0.0,0.0,22,0.00,,---,0.00,VWS V14.01,2013-09-21 21:40:00,
2013-09-21 16:42:00,70.0,30.5,24.95,SSE,147,2.7,2.7,23,0.00,,---,0.00,VWS V14.01,2013-09-21 21:42:00,
2013-09-21 16:43:00,69.8,30.4,24.95,SSE,150,3.1,5.8,23,0.00,,---,0.00,VWS V14.01,2013-09-21 21:43:00,
2013-09-21 16:45:00,69.8,30.4,24.95,SSW,209,2.7,3.1,23,0.00,,---,0.00,VWS V14.01,2013-09-21 21:45:00,
2013-09-21 16:47:00,70.0,30.5,24.95,SE,137,5.4,5.4,23,0.00,,---,0.00,VWS V14.01,2013-09-21 21:47:00,
2013-09-21 16:48:00,70.3,30.8,24.92,SSE,161,6.3,6.3,23,0.00,,---,0.00,VWS V14.01,2013-09-21 21:48:00,
2013-09-21 16:49:00,70.5,31.0,24.92,South,174,8.7,8.7,23,0.00,,---,0.00,VWS V14.01,2013-09-21 21:49:00,
2013-09-21 16:50:00,71.1,31.4,24.92,SE,130,6.3,8.1,23,0.00,,---,0.00,VWS V14.01,2013-09-21 21:50:00,
2013-09-21 16:52:00,71.8,30.9,24.92,South,185,6.7,8.1,22,0.00,,---,0.00,VWS V14.01,2013-09-21 21:52:00,
2013-09-21 16:53:00,72.1,31.2,24.92,South,180,5.8,7.6,22,0.00,,---,0.00,VWS V14.01,2013-09-21 21:53:00,
2013-09-21 16:54:00,72.5,31.5,24.92,SSW,206,5.4,7.6,22,0.00,,---,0.00,VWS V14.01,2013-09-21 21:54:00,
2013-09-21 16:55:00,72.7,31.7,24.92,SE,137,6.3,8.3,22,0.00,,---,0.00,VWS V14.01,2013-09-21 21:55:00,
2013-09-21 16:58:00,72.1,31.2,24.92,SSE,157,5.4,5.4,22,0.00,,---,0.00,VWS V14.01,2013-09-21 21:58:00,
2013-09-21 16:59:00,72.0,31.1,24.92,SE,133,6.7,6.7,22,0.00,,---,0.00,VWS V14.01,2013-09-21 21:59:00,
2013-09-21 17:00:00,71.6,30.8,24.92,SE,141,5.4,5.4,22,0.00,,---,0.00,VWS V14.01,2013-09-21 22:00:00,
2013-09-21 17:04:00,71.6,30.8,24.92,SSE,159,6.3,6.3,22,0.00,,---,0.00,VWS V14.01,2013-09-21 22:04:00,
2013-09-21 17:05:00,71.8,30.9,24.92,SSE,159,7.6,7.6,22,0.00,,---,0.00,VWS V14.01,2013-09-21 22:05:00,
2013-09-21 17:09:00,72.0,31.1,24.92,South,172,5.8,6.3,22,0.00,,---,0.00,VWS V14.01,2013-09-21 22:09:00,
2013-09-21 17:10:00,72.1,31.2,24.92,South,187,3.6,5.4,22,0.00,,---,0.00,VWS V14.01,2013-09-21 22:10:00,
2013-09-21 17:14:00,71.8,30.9,24.92,ESE,109,4.9,6.3,22,0.00,,---,0.00,VWS V14.01,2013-09-21 22:14:00,
2013-09-21 17:15:00,71.6,30.8,24.92,SSE,151,6.3,6.3,22,0.00,,---,0.00,VWS V14.01,2013-09-21 22:15:00,
2013-09-21 17:16:00,71.6,30.8,24.92,South,172,5.8,6.3,22,0.00,,---,0.00,VWS V14.01,2013-09-21 22:16:00,
2013-09-21 17:19:00,72.1,31.2,24.92,South,181,6.3,7.6,22,0.00,,---,0.00,VWS V14.01,2013-09-21 22:19:00,
2013-09-21 17:20:00,72.3,31.4,24.92,SSW,197,6.7,6.7,22,0.00,,---,0.00,VWS V14.01,2013-09-21 22:20:00,
2013-09-21 17:21:00,72.5,31.5,24.92,South,169,8.3,9.6,22,0.00,,---,0.00,VWS V14.01,2013-09-21 22:21:00,
2013-09-21 17:24:00,72.9,31.8,24.92,SSE,158,5.4,7.6,22,0.00,,---,0.00,VWS V14.01,2013-09-21 22:24:00,
2013-09-21 17:25:00,72.9,31.8,24.92,South,182,7.6,7.6,22,0.00,,---,0.00,VWS V14.01,2013-09-21 22:25:00,
2013-09-21 17:26:00,72.9,31.8,24.92,SSE,168,8.3,8.3,22,0.00,,---,0.00,VWS V14.01,2013-09-21 22:26:00,
2013-09-21 17:29:00,72.9,31.8,24.92,SSE,157,7.2,8.3,22,0.00,,---,0.00,VWS V14.01,2013-09-21 22:29:00,
2013-09-21 17:30:00,72.9,31.8,24.92,SSW,208,6.3,8.3,22,0.00,,---,0.00,VWS V14.01,2013-09-21 22:30:00,
2013-09-21 17:31:00,72.9,31.8,24.92,South,172,7.6,7.6,22,0.00,,---,0.00,VWS V14.01,2013-09-21 22:31:00,
2013-09-21 17:34:00,73.0,32.0,24.92,SSE,151,5.4,8.1,22,0.00,,---,0.00,VWS V14.01,2013-09-21 22:34:00,
2013-09-21 17:35:00,73.0,32.0,24.92,SSE,166,4.0,4.0,22,0.00,,---,0.00,VWS V14.01,2013-09-21 22:35:00,
2013-09-21 17:36:00,73.0,32.0,24.92,SSE,152,4.9,4.9,22,0.00,,---,0.00,VWS V14.01,2013-09-21 22:36:00,
2013-09-21 17:39:00,73.2,32.1,24.92,South,176,5.4,7.6,22,0.00,,---,0.00,VWS V14.01,2013-09-21 22:39:00,
2013-09-21 17:40:00,73.0,32.0,24.92,ESE,122,8.3,8.3,22,0.00,,---,0.00,VWS V14.01,2013-09-21 22:40:00,
2013-09-21 17:42:00,72.9,31.8,24.92,SE,140,8.3,11.0,22,0.00,,---,0.00,VWS V14.01,2013-09-21 22:42:00,
2013-09-21 17:44:00,72.5,31.5,24.92,SSE,166,5.8,5.8,22,0.00,,---,0.00,VWS V14.01,2013-09-21 22:44:00,
2013-09-21 17:46:00,72.3,31.4,24.92,SE,134,4.5,5.4,22,0.00,,---,0.00,VWS V14.01,2013-09-21 22:46:00,
2013-09-21 17:47:00,72.0,31.1,24.92,SE,134,3.6,3.6,22,0.00,,---,0.00,VWS V14.01,2013-09-21 22:47:00,
2013-09-21 17:49:00,71.2,31.6,24.92,SSE,151,4.9,4.9,23,0.00,,---,0.00,VWS V14.01,2013-09-21 22:49:00,
2013-09-21 17:51:00,70.7,31.1,24.92,SSE,164,5.8,5.8,23,0.00,,---,0.00,VWS V14.01,2013-09-21 22:51:00,
2013-09-21 17:52:00,70.7,31.1,24.92,SSE,155,6.3,6.7,23,0.00,,---,0.00,VWS V14.01,2013-09-21 22:52:00,
2013-09-21 17:53:00,70.7,31.1,24.92,SSW,193,5.4,5.8,23,0.00,,---,0.00,VWS V14.01,2013-09-21 22:53:00,
2013-09-21 17:54:00,70.5,31.0,24.92,South,179,4.9,5.4,23,0.00,,---,0.00,VWS V14.01,2013-09-21 22:54:00,
2013-09-21 17:55:00,70.5,31.0,24.92,South,181,4.9,5.4,23,0.00,,---,0.00,VWS V14.01,2013-09-21 22:55:00,
2013-09-21 17:57:00,70.7,31.1,24.92,South,190,5.4,5.4,23,0.00,,---,0.00,VWS V14.01,2013-09-21 22:57:00,
2013-09-21 17:58:00,70.7,31.1,24.92,SSW,210,5.8,5.8,23,0.00,,---,0.00,VWS V14.01,2013-09-21 22:58:00,
2013-09-21 17:59:00,70.7,31.1,24.92,SSW,202,3.6,3.6,23,0.00,,---,0.00,VWS V14.01,2013-09-21 22:59:00,
2013-09-21 18:00:00,70.7,31.1,24.92,SSW,203,4.0,4.0,23,0.00,,---,0.00,VWS V14.01,2013-09-21 23:00:00,
2013-09-21 18:02:00,70.3,30.8,24.92,SSW,192,5.4,6.3,23,0.00,,---,0.00,VWS V14.01,2013-09-21 23:02:00,
2013-09-21 18:03:00,70.3,30.8,24.92,South,190,4.0,5.4,23,0.00,,---,0.00,VWS V14.01,2013-09-21 23:03:00,
2013-09-21 18:04:00,70.2,30.7,24.92,SSW,198,3.6,4.0,23,0.00,,---,0.00,VWS V14.01,2013-09-21 23:04:00,
2013-09-21 18:05:00,70.2,30.7,24.92,SSW,203,3.1,3.1,23,0.00,,---,0.00,VWS V14.01,2013-09-21 23:05:00,
2013-09-21 18:07:00,70.0,30.5,24.92,South,184,4.0,6.3,23,0.00,,---,0.00,VWS V14.01,2013-09-21 23:07:00,
2013-09-21 18:08:00,70.0,30.5,24.92,SSE,164,5.8,5.8,23,0.00,,---,0.00,VWS V14.01,2013-09-21 23:08:00,
2013-09-21 18:09:00,70.0,30.5,24.92,South,171,4.0,4.9,23,0.00,,---,0.00,VWS V14.01,2013-09-21 23:09:00,
2013-09-21 18:10:00,70.0,30.5,24.92,SE,144,4.0,4.0,23,0.00,,---,0.00,VWS V14.01,2013-09-21 23:10:00,
2013-09-21 18:13:00,69.6,30.2,24.92,SE,133,4.0,6.3,23,0.00,,---,0.00,VWS V14.01,2013-09-21 23:13:00,
2013-09-21 18:14:00,69.6,30.2,24.92,SE,127,7.6,7.6,23,0.00,,---,0.00,VWS V14.01,2013-09-21 23:14:00,
2013-09-21 18:16:00,69.3,29.9,24.92,SE,145,5.4,5.4,23,0.00,,---,0.00,VWS V14.01,2013-09-21 23:16:00,
2013-09-21 18:18:00,69.1,29.8,24.92,SE,135,4.0,4.9,23,0.00,,---,0.00,VWS V14.01,2013-09-21 23:18:00,
2013-09-21 18:19:00,68.9,29.6,24.92,SE,146,5.8,6.7,23,0.00,,---,0.00,VWS V14.01,2013-09-21 23:19:00,
2013-09-21 18:20:00,68.7,29.5,24.92,SSE,154,3.1,3.1,23,0.00,,---,0.00,VWS V14.01,2013-09-21 23:20:00,
2013-09-21 18:23:00,68.5,29.3,24.92,SSE,166,4.0,5.4,23,0.00,,---,0.00,VWS V14.01,2013-09-21 23:23:00,
2013-09-21 18:24:00,68.5,29.3,24.92,SSE,163,4.0,5.4,23,0.00,,---,0.00,VWS V14.01,2013-09-21 23:24:00,
2013-09-21 18:26:00,68.4,29.1,24.92,SE,139,4.0,4.5,23,0.00,,---,0.00,VWS V14.01,2013-09-21 23:26:00,
2013-09-21 18:28:00,68.2,29.0,24.92,SSE,154,3.1,3.1,23,0.00,,---,0.00,VWS V14.01,2013-09-21 23:28:00,
2013-09-21 18:29:00,68.2,29.0,24.92,SSE,155,2.7,3.6,23,0.00,,---,0.00,VWS V14.01,2013-09-21 23:29:00,
2013-09-21 18:30:00,68.2,30.0,24.92,SSE,166,3.1,3.6,24,0.00,,---,0.00,VWS V14.01,2013-09-21 23:30:00,
2013-09-21 18:31:00,68.2,30.0,24.92,SSE,162,2.7,3.6,24,0.00,,---,0.00,VWS V14.01,2013-09-21 23:31:00,
2013-09-21 18:33:00,68.2,30.0,24.92,SSE,162,3.1,3.1,24,0.00,,---,0.00,VWS V14.01,2013-09-21 23:33:00,
2013-09-21 18:34:00,68.2,30.0,24.92,SSE,162,2.7,3.1,24,0.00,,---,0.00,VWS V14.01,2013-09-21 23:34:00,
2013-09-21 18:35:00,68.2,30.0,24.92,SSE,162,2.7,2.7,24,0.00,,---,0.00,VWS V14.01,2013-09-21 23:35:00,
2013-09-21 18:36:00,68.2,30.0,24.92,SSE,162,2.7,3.1,24,0.00,,---,0.00,VWS V14.01,2013-09-21 23:36:00,
2013-09-21 18:38:00,68.2,30.0,24.92,SSE,162,2.2,2.7,24,0.00,,---,0.00,VWS V14.01,2013-09-21 23:38:00,
2013-09-21 18:39:00,68.2,30.0,24.92,South,181,2.7,2.7,24,0.00,,---,0.00,VWS V14.01,2013-09-21 23:39:00,
2013-09-21 18:40:00,68.2,30.0,24.92,South,181,3.6,3.6,24,0.00,,---,0.00,VWS V14.01,2013-09-21 23:40:00,
2013-09-21 18:41:00,68.2,30.0,24.92,SSE,166,3.1,3.6,24,0.00,,---,0.00,VWS V14.01,2013-09-21 23:41:00,
2013-09-21 18:44:00,68.2,30.0,24.92,SE,144,3.1,3.1,24,0.00,,---,0.00,VWS V14.01,2013-09-21 23:44:00,
2013-09-21 18:45:00,68.2,30.0,24.92,SE,141,3.1,3.6,24,0.00,,---,0.00,VWS V14.01,2013-09-21 23:45:00,
2013-09-21 18:46:00,68.2,30.0,24.92,SSE,147,3.1,3.1,24,0.00,,---,0.00,VWS V14.01,2013-09-21 23:46:00,
2013-09-21 18:49:00,68.0,29.9,24.92,SSE,160,2.7,3.1,24,0.00,,---,0.00,VWS V14.01,2013-09-21 23:49:00,
2013-09-21 18:50:00,68.0,29.9,24.92,South,179,3.6,3.6,24,0.00,,---,0.00,VWS V14.01,2013-09-21 23:50:00,
2013-09-21 18:51:00,68.0,29.9,24.92,South,179,3.6,4.0,24,0.00,,---,0.00,VWS V14.01,2013-09-21 23:51:00,
2013-09-21 18:54:00,68.0,29.9,24.92,South,172,3.1,4.0,24,0.00,,---,0.00,VWS V14.01,2013-09-21 23:54:00,
2013-09-21 18:55:00,68.0,29.9,24.92,South,172,2.7,3.1,24,0.00,,---,0.00,VWS V14.01,2013-09-21 23:55:00,
2013-09-21 18:56:00,67.8,29.7,24.92,South,171,3.6,3.6,24,0.00,,---,0.00,VWS V14.01,2013-09-21 23:56:00,
2013-09-21 18:57:00,67.8,30.7,24.92,South,171,2.2,2.7,25,0.00,,---,0.00,VWS V14.01,2013-09-21 23:57:00,
2013-09-21 19:00:00,67.8,30.7,24.92,South,191,3.6,4.0,25,0.00,,---,0.00,VWS V14.01,2013-09-22 00:00:00,
2013-09-21 19:01:00,67.6,30.6,24.92,South,191,2.7,2.7,25,0.00,,---,0.00,VWS V14.01,2013-09-22 00:01:00,
2013-09-21 19:02:00,67.6,30.6,24.92,South,178,3.6,3.6,25,0.00,,---,0.00,VWS V14.01,2013-09-22 00:02:00,
2013-09-21 19:05:00,67.6,30.6,24.92,South,172,3.6,3.6,25,0.00,,---,0.00,VWS V14.01,2013-09-22 00:05:00,
2013-09-21 19:06:00,67.5,30.4,24.92,SSE,163,3.6,3.6,25,0.00,,---,0.00,VWS V14.01,2013-09-22 00:06:00,
2013-09-21 19:07:00,67.5,31.4,24.92,South,177,4.0,4.0,26,0.00,,---,0.00,VWS V14.01,2013-09-22 00:07:00,
2013-09-21 19:10:00,67.3,31.2,24.92,South,181,3.1,4.0,26,0.00,,---,0.00,VWS V14.01,2013-09-22 00:10:00,
2013-09-21 19:11:00,67.3,31.2,24.92,South,176,4.9,4.9,26,0.00,,---,0.00,VWS V14.01,2013-09-22 00:11:00,
2013-09-21 19:12:00,67.3,31.2,24.92,South,177,3.1,4.9,26,0.00,,---,0.00,VWS V14.01,2013-09-22 00:12:00,
2013-09-21 19:15:00,67.1,31.1,24.92,South,176,4.0,4.0,26,0.00,,---,0.00,VWS V14.01,2013-09-22 00:15:00,
2013-09-21 19:16:00,67.1,31.1,24.92,South,173,4.0,4.0,26,0.00,,---,0.00,VWS V14.01,2013-09-22 00:16:00,
2013-09-21 19:17:00,67.1,31.1,24.92,South,173,2.7,4.0,26,0.00,,---,0.00,VWS V14.01,2013-09-22 00:17:00,
2013-09-21 19:20:00,66.9,31.0,24.92,South,173,3.1,3.1,26,0.00,,---,0.00,VWS V14.01,2013-09-22 00:20:00,
2013-09-21 19:21:00,66.9,31.0,24.92,South,173,3.6,3.6,26,0.00,,---,0.00,VWS V14.01,2013-09-22 00:21:00,
2013-09-21 19:22:00,66.7,30.8,24.92,South,173,3.1,4.0,26,0.00,,---,0.00,VWS V14.01,2013-09-22 00:22:00,
2013-09-21 19:23:00,66.7,30.8,24.92,South,173,2.7,3.6,26,0.00,,---,0.00,VWS V14.01,2013-09-22 00:23:00,
2013-09-21 19:25:00,66.6,31.6,24.92,South,173,0.0,2.7,27,0.00,,---,0.00,VWS V14.01,2013-09-22 00:25:00,
2013-09-21 19:26:00,66.6,31.6,24.92,South,173,2.7,2.7,27,0.00,,---,0.00,VWS V14.01,2013-09-22 00:26:00,
2013-09-21 19:27:00,66.4,31.4,24.92,South,173,3.1,3.1,27,0.00,,---,0.00,VWS V14.01,2013-09-22 00:27:00,
2013-09-21 19:28:00,66.4,31.4,24.92,South,173,3.1,3.1,27,0.00,,---,0.00,VWS V14.01,2013-09-22 00:28:00,
2013-09-21 19:31:00,66.2,31.3,24.92,South,173,3.1,3.6,27,0.00,,---,0.00,VWS V14.01,2013-09-22 00:31:00,
2013-09-21 19:32:00,66.0,32.0,24.92,South,177,2.7,3.6,28,0.00,,---,0.00,VWS V14.01,2013-09-22 00:32:00,
2013-09-21 19:33:00,66.0,32.0,24.92,South,179,3.1,3.1,28,0.00,,---,0.00,VWS V14.01,2013-09-22 00:33:00,
2013-09-21 19:36:00,65.8,31.9,24.92,South,187,2.7,3.1,28,0.00,,---,0.00,VWS V14.01,2013-09-22 00:36:00,
2013-09-21 19:37:00,65.7,31.7,24.92,South,187,3.1,3.1,28,0.00,,---,0.00,VWS V14.01,2013-09-22 00:37:00,
2013-09-21 19:39:00,65.7,31.7,24.92,South,186,2.7,3.6,28,0.00,,---,0.00,VWS V14.01,2013-09-22 00:39:00,
2013-09-21 19:41:00,65.5,32.4,24.92,South,180,3.1,3.6,29,0.00,,---,0.00,VWS V14.01,2013-09-22 00:41:00,
2013-09-21 19:42:00,65.5,32.4,24.92,South,173,4.0,4.9,29,0.00,,---,0.00,VWS V14.01,2013-09-22 00:42:00,
2013-09-21 19:44:00,65.3,32.3,24.92,South,175,4.9,4.9,29,0.00,,---,0.00,VWS V14.01,2013-09-22 00:44:00,
2013-09-21 19:46:00,65.3,32.3,24.92,South,177,4.0,5.4,29,0.00,,---,0.00,VWS V14.01,2013-09-22 00:46:00,
2013-09-21 19:47:00,65.3,32.3,24.92,South,169,4.9,5.4,29,0.00,,---,0.00,VWS V14.01,2013-09-22 00:47:00,
2013-09-21 19:49:00,65.1,32.1,24.89,SSW,194,4.0,5.4,29,0.00,,---,0.00,VWS V14.01,2013-09-22 00:49:00,
2013-09-21 19:51:00,65.1,32.1,24.89,South,176,4.0,4.0,29,0.00,,---,0.00,VWS V14.01,2013-09-22 00:51:00,
2013-09-21 19:52:00,65.1,32.9,24.89,SSE,161,3.1,4.0,30,0.00,,---,0.00,VWS V14.01,2013-09-22 00:52:00,
2013-09-21 19:55:00,64.9,32.8,24.89,South,169,3.1,3.1,30,0.00,,---,0.00,VWS V14.01,2013-09-22 00:55:00,
2013-09-21 19:56:00,64.8,33.5,24.89,South,179,5.4,5.8,31,0.00,,---,0.00,VWS V14.01,2013-09-22 00:56:00,
2013-09-21 19:57:00,64.8,33.5,24.89,South,182,3.6,5.4,31,0.00,,---,0.00,VWS V14.01,2013-09-22 00:57:00,
2013-09-21 20:00:00,64.6,34.1,24.89,South,183,3.1,3.6,32,0.00,,---,0.00,VWS V14.01,2013-09-22 01:00:00,
2013-09-21 20:02:00,64.4,34.7,24.89,South,172,4.0,4.0,33,0.00,,---,0.00,VWS V14.01,2013-09-22 01:02:00,
2013-09-21 20:03:00,64.4,34.7,24.89,SSE,167,4.9,4.9,33,0.00,,---,0.00,VWS V14.01,2013-09-22 01:03:00,
2013-09-21 20:05:00,64.2,35.3,24.89,SSE,168,4.0,4.0,34,0.00,,---,0.00,VWS V14.01,2013-09-22 01:05:00,
2013-09-21 20:07:00,64.0,35.1,24.89,SSE,156,3.1,4.0,34,0.00,,---,0.00,VWS V14.01,2013-09-22 01:07:00,
2013-09-21 20:08:00,64.0,35.1,24.89,SSE,156,3.6,4.0,34,0.00,,---,0.00,VWS V14.01,2013-09-22 01:08:00,
2013-09-21 20:10:00,63.9,35.0,24.89,SSE,150,4.0,4.0,34,0.00,,---,0.00,VWS V14.01,2013-09-22 01:10:00,
2013-09-21 20:12:00,63.7,35.5,24.89,SSE,147,4.0,4.0,35,0.00,,---,0.00,VWS V14.01,2013-09-22 01:12:00,
2013-09-21 20:13:00,63.7,35.5,24.89,SSE,147,3.1,4.0,35,0.00,,---,0.00,VWS V14.01,2013-09-22 01:13:00,
2013-09-21 20:16:00,63.5,35.4,24.89,SSE,149,3.1,3.1,35,0.00,,---,0.00,VWS V14.01,2013-09-22 01:16:00,
2013-09-21 20:17:00,63.3,35.2,24.89,SE,146,3.6,3.6,35,0.00,,---,0.00,VWS V14.01,2013-09-22 01:17:00,
2013-09-21 20:18:00,63.3,35.2,24.89,SE,142,4.0,4.0,35,0.00,,---,0.00,VWS V14.01,2013-09-22 01:18:00,
2013-09-21 20:21:00,63.1,35.1,24.89,SE,142,2.7,2.7,35,0.00,,---,0.00,VWS V14.01,2013-09-22 01:21:00,
2013-09-21 20:22:00,63.1,35.1,24.89,SE,139,4.0,4.0,35,0.00,,---,0.00,VWS V14.01,2013-09-22 01:22:00,
2013-09-21 20:23:00,63.0,34.9,24.89,SE,138,3.1,4.9,35,0.00,,---,0.00,VWS V14.01,2013-09-22 01:23:00,
2013-09-21 20:24:00,63.0,34.9,24.89,SE,138,2.7,3.6,35,0.00,,---,0.00,VWS V14.01,2013-09-22 01:24:00,
2013-09-21 20:27:00,63.0,34.9,24.89,SE,138,2.7,3.1,35,0.00,,---,0.00,VWS V14.01,2013-09-22 01:27:00,
2013-09-21 20:28:00,62.8,34.8,24.89,SE,138,2.7,2.7,35,0.00,,---,0.00,VWS V14.01,2013-09-22 01:28:00,
2013-09-21 20:29:00,62.8,34.8,24.89,SE,138,2.2,3.1,35,0.00,,---,0.00,VWS V14.01,2013-09-22 01:29:00,
2013-09-21 20:32:00,62.6,34.6,24.89,SSE,147,3.1,3.1,35,0.00,,---,0.00,VWS V14.01,2013-09-22 01:32:00,
2013-09-21 20:33:00,62.6,34.6,24.89,SSE,147,3.1,3.1,35,0.00,,---,0.00,VWS V14.01,2013-09-22 01:33:00,
2013-09-21 20:34:00,62.6,34.6,24.89,SSE,147,3.1,3.1,35,0.00,,---,0.00,VWS V14.01,2013-09-22 01:34:00,
2013-09-21 20:35:00,62.6,34.6,24.89,SSE,147,2.7,3.1,35,0.00,,---,0.00,VWS V14.01,2013-09-22 01:35:00,
2013-09-21 20:37:00,62.4,35.1,24.89,SSE,147,3.1,3.6,36,0.00,,---,0.00,VWS V14.01,2013-09-22 01:37:00,
2013-09-21 20:38:00,62.4,35.1,24.89,SSE,147,2.7,3.1,36,0.00,,---,0.00,VWS V14.01,2013-09-22 01:38:00,
2013-09-21 20:39:00,62.2,35.0,24.89,SSE,147,3.1,3.1,36,0.00,,---,0.00,VWS V14.01,2013-09-22 01:39:00,
2013-09-21 20:40:00,62.2,35.0,24.89,SSE,147,2.7,3.1,36,0.00,,---,0.00,VWS V14.01,2013-09-22 01:40:00,
2013-09-21 20:42:00,62.2,35.0,24.89,SE,146,2.7,3.1,36,0.00,,---,0.00,VWS V14.01,2013-09-22 01:42:00,
2013-09-21 20:43:00,62.2,35.0,24.89,SE,146,2.7,2.7,36,0.00,,---,0.00,VWS V14.01,2013-09-22 01:43:00,
2013-09-21 20:44:00,62.1,34.8,24.89,SE,146,3.1,3.1,36,0.00,,---,0.00,VWS V14.01,2013-09-22 01:44:00,
2013-09-21 20:45:00,62.1,34.8,24.89,SE,146,2.7,3.1,36,0.00,,---,0.00,VWS V14.01,2013-09-22 01:45:00,
2013-09-21 20:48:00,61.9,35.3,24.89,SE,127,3.6,3.6,37,0.00,,---,0.00,VWS V14.01,2013-09-22 01:48:00,
2013-09-21 20:49:00,61.7,35.2,24.89,SE,126,3.1,3.1,37,0.00,,---,0.00,VWS V14.01,2013-09-22 01:49:00,
2013-09-21 20:50:00,61.7,35.2,24.89,SE,126,2.7,3.1,37,0.00,,---,0.00,VWS V14.01,2013-09-22 01:50:00,
2013-09-21 20:53:00,61.5,35.7,24.89,SE,126,2.2,3.1,38,0.00,,---,0.00,VWS V14.01,2013-09-22 01:53:00,
2013-09-21 20:54:00,61.3,35.5,24.89,SE,126,2.2,2.7,38,0.00,,---,0.00,VWS V14.01,2013-09-22 01:54:00,
2013-09-21 20:55:00,61.3,35.5,24.89,SE,126,2.7,2.7,38,0.00,,---,0.00,VWS V14.01,2013-09-22 01:55:00,
2013-09-21 20:56:00,61.3,35.5,24.89,SE,126,2.7,2.7,38,0.00,,---,0.00,VWS V14.01,2013-09-22 01:56:00,
2013-09-21 20:58:00,61.2,35.4,24.89,SE,126,2.7,2.7,38,0.00,,---,0.00,VWS V14.01,2013-09-22 01:58:00,
2013-09-21 20:59:00,61.2,35.4,24.89,SE,126,2.2,2.7,38,0.00,,---,0.00,VWS V14.01,2013-09-22 01:59:00,
2013-09-21 21:00:00,61.0,35.2,24.89,SE,126,0.0,2.2,38,0.00,,---,0.00,VWS V14.01,2013-09-22 02:00:00,
2013-09-21 21:01:00,61.0,35.2,24.89,SE,126,0.0,2.2,38,0.00,,---,0.00,VWS V14.01,2013-09-22 02:01:00,
2013-09-21 21:03:00,60.8,35.1,24.89,SE,126,2.2,2.7,38,0.00,,---,0.00,VWS V14.01,2013-09-22 02:03:00,
2013-09-21 21:04:00,60.8,35.7,24.89,SE,126,0.0,2.2,39,0.00,,---,0.00,VWS V14.01,2013-09-22 02:04:00,
2013-09-21 21:06:00,60.8,35.7,24.89,SE,126,0.0,2.2,39,0.00,,---,0.00,VWS V14.01,2013-09-22 02:06:00,
2013-09-21 21:08:00,60.6,36.2,24.89,SE,126,0.0,0.0,40,0.00,,---,0.00,VWS V14.01,2013-09-22 02:08:00,
2013-09-21 21:09:00,60.6,36.2,24.89,SE,126,0.0,0.0,40,0.00,,---,0.00,VWS V14.01,2013-09-22 02:09:00,
2013-09-21 21:10:00,60.6,36.2,24.89,SE,126,0.0,0.0,40,0.00,,---,0.00,VWS V14.01,2013-09-22 02:10:00,
2013-09-21 21:11:00,60.6,36.2,24.89,SE,126,0.0,0.0,40,0.00,,---,0.00,VWS V14.01,2013-09-22 02:11:00,
2013-09-21 21:13:00,60.4,36.0,24.89,SE,126,0.0,0.0,40,0.00,,---,0.00,VWS V14.01,2013-09-22 02:13:00,
2013-09-21 21:14:00,60.4,36.0,24.89,SE,126,0.0,0.0,40,0.00,,---,0.00,VWS V14.01,2013-09-22 02:14:00,
2013-09-21 21:15:00,60.3,35.9,24.89,SE,126,0.0,0.0,40,0.00,,---,0.00,VWS V14.01,2013-09-22 02:15:00,
2013-09-21 21:16:00,60.3,35.9,24.89,SE,126,0.0,0.0,40,0.00,,---,0.00,VWS V14.01,2013-09-22 02:16:00,
2013-09-21 21:17:00,60.1,35.7,24.89,SE,126,0.0,0.0,40,0.00,,---,0.00,VWS V14.01,2013-09-22 02:17:00,
2013-09-21 21:18:00,60.1,36.3,24.89,SE,126,0.0,0.0,41,0.00,,---,0.00,VWS V14.01,2013-09-22 02:18:00,
2013-09-21 21:19:00,60.1,36.3,24.89,SE,133,0.0,0.0,41,0.00,,---,0.00,VWS V14.01,2013-09-22 02:19:00,
2013-09-21 21:21:00,60.3,37.1,24.89,SE,133,0.0,0.0,42,0.00,,---,0.00,VWS V14.01,2013-09-22 02:21:00,
2013-09-21 21:23:00,60.3,37.1,24.89,SE,133,0.0,0.0,42,0.00,,---,0.00,VWS V14.01,2013-09-22 02:23:00,
2013-09-21 21:24:00,60.3,37.1,24.89,SE,133,0.0,0.0,42,0.00,,---,0.00,VWS V14.01,2013-09-22 02:24:00,
2013-09-21 21:26:00,60.3,37.1,24.89,SE,133,0.0,0.0,42,0.00,,---,0.00,VWS V14.01,2013-09-22 02:26:00,
2013-09-21 21:28:00,60.1,36.9,24.89,SE,136,3.1,4.9,42,0.00,,---,0.00,VWS V14.01,2013-09-22 02:28:00,
2013-09-21 21:29:00,60.1,37.5,24.89,SE,136,2.7,2.7,43,0.00,,---,0.00,VWS V14.01,2013-09-22 02:29:00,
2013-09-21 21:30:00,60.1,37.5,24.89,SE,135,2.7,2.7,43,0.00,,---,0.00,VWS V14.01,2013-09-22 02:30:00,
2013-09-21 21:31:00,60.1,37.5,24.89,SE,135,2.7,2.7,43,0.00,,---,0.00,VWS V14.01,2013-09-22 02:31:00,
2013-09-21 21:33:00,60.1,37.5,24.89,SE,135,3.6,3.6,43,0.00,,---,0.00,VWS V14.01,2013-09-22 02:33:00,
2013-09-21 21:34:00,59.9,37.4,24.89,SE,135,3.1,3.6,43,0.00,,---,0.00,VWS V14.01,2013-09-22 02:34:00,
2013-09-21 21:36:00,59.9,37.4,24.89,SE,129,2.2,3.1,43,0.00,,---,0.00,VWS V14.01,2013-09-22 02:36:00,
2013-09-21 21:37:00,59.7,37.2,24.89,SE,129,2.2,2.2,43,0.00,,---,0.00,VWS V14.01,2013-09-22 02:37:00,
2013-09-21 21:38:00,59.7,37.2,24.89,SE,124,3.1,3.1,43,0.00,,---,0.00,VWS V14.01,2013-09-22 02:38:00,
2013-09-21 21:39:00,59.7,37.8,24.89,SE,124,3.1,3.1,44,0.00,,---,0.00,VWS V14.01,2013-09-22 02:39:00,
2013-09-21 21:41:00,59.7,37.8,24.89,East,101,0.0,0.0,44,0.00,,---,0.00,VWS V14.01,2013-09-22 02:41:00,
2013-09-21 21:42:00,59.7,37.8,24.89,East,97,0.0,0.0,44,0.00,,---,0.00,VWS V14.01,2013-09-22 02:42:00,
2013-09-21 21:44:00,59.7,37.8,24.89,East,97,0.0,0.0,44,0.00,,---,0.00,VWS V14.01,2013-09-22 02:44:00,
2013-09-21 21:46:00,59.7,37.8,24.89,East,97,0.0,0.0,44,0.00,,---,0.00,VWS V14.01,2013-09-22 02:46:00,
2013-09-21 21:47:00,59.7,37.8,24.89,East,97,0.0,0.0,44,0.00,,---,0.00,VWS V14.01,2013-09-22 02:47:00,
2013-09-21 21:48:00,59.7,37.8,24.89,East,97,0.0,0.0,44,0.00,,---,0.00,VWS V14.01,2013-09-22 02:48:00,
2013-09-21 21:49:00,59.7,37.8,24.89,East,97,0.0,0.0,44,0.00,,---,0.00,VWS V14.01,2013-09-22 02:49:00,
2013-09-21 21:51:00,59.7,37.8,24.89,East,97,0.0,0.0,44,0.00,,---,0.00,VWS V14.01,2013-09-22 02:51:00,
2013-09-21 21:53:00,59.7,38.4,24.89,East,97,0.0,0.0,45,0.00,,---,0.00,VWS V14.01,2013-09-22 02:53:00,
2013-09-21 21:54:00,59.7,37.8,24.89,East,97,0.0,0.0,44,0.00,,---,0.00,VWS V14.01,2013-09-22 02:54:00,
2013-09-21 21:56:00,59.5,37.6,24.89,East,97,0.0,0.0,44,0.00,,---,0.00,VWS V14.01,2013-09-22 02:56:00,
2013-09-21 21:58:00,59.2,37.3,24.89,East,97,0.0,0.0,44,0.00,,---,0.00,VWS V14.01,2013-09-22 02:58:00,
2013-09-21 21:59:00,59.2,37.3,24.89,East,97,0.0,0.0,44,0.00,,---,0.00,VWS V14.01,2013-09-22 02:59:00,
2013-09-21 22:00:00,59.0,37.1,24.89,East,97,0.0,0.0,44,0.00,,---,0.00,VWS V14.01,2013-09-22 03:00:00,
2013-09-21 22:02:00,58.6,36.8,24.89,East,97,0.0,0.0,44,0.00,,---,0.00,VWS V14.01,2013-09-22 03:02:00,
2013-09-21 22:03:00,58.6,37.4,24.92,East,97,0.0,0.0,45,0.00,,---,0.00,VWS V14.01,2013-09-22 03:03:00,
2013-09-21 22:04:00,58.5,37.2,24.92,East,97,0.0,0.0,45,0.00,,---,0.00,VWS V14.01,2013-09-22 03:04:00,
2013-09-21 22:05:00,58.5,37.2,24.92,East,97,0.0,0.0,45,0.00,,---,0.00,VWS V14.01,2013-09-22 03:05:00,
2013-09-21 22:07:00,58.1,36.9,24.92,East,97,0.0,0.0,45,0.00,,---,0.00,VWS V14.01,2013-09-22 03:07:00,
2013-09-21 22:09:00,58.1,36.9,24.92,East,97,0.0,0.0,45,0.00,,---,0.00,VWS V14.01,2013-09-22 03:09:00,
2013-09-21 22:10:00,58.1,36.9,24.92,East,97,0.0,0.0,45,0.00,,---,0.00,VWS V14.01,2013-09-22 03:10:00,
2013-09-21 22:13:00,57.7,36.6,24.92,East,97,0.0,0.0,45,0.00,,---,0.00,VWS V14.01,2013-09-22 03:13:00,
2013-09-21 22:14:00,57.7,36.6,24.92,East,97,0.0,0.0,45,0.00,,---,0.00,VWS V14.01,2013-09-22 03:14:00,
2013-09-21 22:15:00,57.6,37.0,24.92,East,97,0.0,0.0,46,0.00,,---,0.00,VWS V14.01,2013-09-22 03:15:00,
2013-09-21 22:18:00,57.6,37.0,24.92,East,97,0.0,0.0,46,0.00,,---,0.00,VWS V14.01,2013-09-22 03:18:00,
2013-09-21 22:19:00,57.6,37.0,24.92,East,97,0.0,0.0,46,0.00,,---,0.00,VWS V14.01,2013-09-22 03:19:00,
2013-09-21 22:20:00,57.6,37.0,24.92,East,97,0.0,0.0,46,0.00,,---,0.00,VWS V14.01,2013-09-22 03:20:00,
2013-09-21 22:23:00,57.2,36.6,24.92,East,97,0.0,0.0,46,0.00,,---,0.00,VWS V14.01,2013-09-22 03:23:00,
2013-09-21 22:24:00,57.2,36.6,24.92,East,97,0.0,0.0,46,0.00,,---,0.00,VWS V14.01,2013-09-22 03:24:00,
2013-09-21 22:25:00,57.2,36.6,24.92,East,97,0.0,0.0,46,0.00,,---,0.00,VWS V14.01,2013-09-22 03:25:00,
2013-09-21 22:26:00,57.2,37.2,24.92,East,97,0.0,0.0,47,0.00,,---,0.00,VWS V14.01,2013-09-22 03:26:00,
2013-09-21 22:28:00,56.8,36.8,24.92,East,97,0.0,0.0,47,0.00,,---,0.00,VWS V14.01,2013-09-22 03:28:00,
2013-09-21 22:29:00,56.8,36.8,24.92,East,97,0.0,0.0,47,0.00,,---,0.00,VWS V14.01,2013-09-22 03:29:00,
2013-09-21 22:30:00,56.8,37.4,24.92,East,97,0.0,0.0,48,0.00,,---,0.00,VWS V14.01,2013-09-22 03:30:00,
2013-09-21 22:31:00,56.7,37.2,24.92,East,97,0.0,0.0,48,0.00,,---,0.00,VWS V14.01,2013-09-22 03:31:00,
2013-09-21 22:33:00,56.7,37.2,24.92,East,97,0.0,0.0,48,0.00,,---,0.00,VWS V14.01,2013-09-22 03:33:00,
2013-09-21 22:34:00,56.7,37.2,24.92,East,97,0.0,0.0,48,0.00,,---,0.00,VWS V14.01,2013-09-22 03:34:00,
2013-09-21 22:36:00,56.5,37.6,24.92,East,97,0.0,0.0,49,0.00,,---,0.00,VWS V14.01,2013-09-22 03:36:00,
2013-09-21 22:38:00,56.3,37.4,24.92,East,97,0.0,0.0,49,0.00,,---,0.00,VWS V14.01,2013-09-22 03:38:00,
2013-09-21 22:39:00,56.3,37.4,24.92,East,97,0.0,0.0,49,0.00,,---,0.00,VWS V14.01,2013-09-22 03:39:00,
2013-09-21 22:41:00,56.3,37.9,24.92,East,96,0.0,0.0,50,0.00,,---,0.00,VWS V14.01,2013-09-22 03:41:00,
2013-09-21 22:44:00,56.3,37.9,24.92,East,95,0.0,0.0,50,0.00,,---,0.00,VWS V14.01,2013-09-22 03:44:00,
2013-09-21 22:45:00,56.3,38.4,24.92,East,95,0.0,0.0,51,0.00,,---,0.00,VWS V14.01,2013-09-22 03:45:00,
2013-09-21 22:46:00,56.3,38.4,24.92,East,95,0.0,0.0,51,0.00,,---,0.00,VWS V14.01,2013-09-22 03:46:00,
2013-09-21 22:49:00,56.3,38.4,24.92,East,95,0.0,0.0,51,0.00,,---,0.00,VWS V14.01,2013-09-22 03:49:00,
2013-09-21 22:50:00,56.1,38.3,24.92,ENE,78,0.0,0.0,51,0.00,,---,0.00,VWS V14.01,2013-09-22 03:50:00,
2013-09-21 22:51:00,56.1,38.3,24.92,ENE,72,0.0,0.0,51,0.00,,---,0.00,VWS V14.01,2013-09-22 03:51:00,
2013-09-21 22:52:00,56.1,38.8,24.92,NE,49,0.0,0.0,52,0.00,,---,0.00,VWS V14.01,2013-09-22 03:52:00,
2013-09-21 22:54:00,56.1,39.2,24.92,NE,42,0.0,0.0,53,0.00,,---,0.00,VWS V14.01,2013-09-22 03:54:00,
2013-09-21 22:55:00,56.1,39.2,24.92,NNE,25,0.0,0.0,53,0.00,,---,0.00,VWS V14.01,2013-09-22 03:55:00,
2013-09-21 22:56:00,56.1,39.2,24.92,NNE,15,0.0,0.0,53,0.00,,---,0.00,VWS V14.01,2013-09-22 03:56:00,
2013-09-21 22:57:00,55.9,39.1,24.92,NNE,15,0.0,0.0,53,0.00,,---,0.00,VWS V14.01,2013-09-22 03:57:00,
2013-09-21 22:59:00,55.9,39.5,24.92,NNE,15,0.0,0.0,54,0.00,,---,0.00,VWS V14.01,2013-09-22 03:59:00,
2013-09-21 23:00:00,55.9,39.5,24.92,NNE,12,0.0,0.0,54,0.00,,---,0.00,VWS V14.01,2013-09-22 04:00:00,
2013-09-21 23:01:00,55.9,39.5,24.92,NNE,12,0.0,0.0,54,0.00,,---,0.00,VWS V14.01,2013-09-22 04:01:00,
2013-09-21 23:06:00,55.6,39.2,24.92,NNE,12,0.0,0.0,54,0.00,,---,0.00,VWS V14.01,2013-09-22 04:06:00,
2013-09-21 23:11:00,55.2,39.3,24.92,NNE,12,0.0,0.0,55,0.00,,---,0.00,VWS V14.01,2013-09-22 04:11:00,
2013-09-21 23:16:00,55.0,39.7,24.92,NNE,12,0.0,0.0,56,0.00,,---,0.00,VWS V14.01,2013-09-22 04:16:00,
2013-09-21 23:21:00,55.0,40.1,24.89,NNE,12,0.0,0.0,57,0.00,,---,0.00,VWS V14.01,2013-09-22 04:21:00,
2013-09-21 23:22:00,55.0,40.1,24.89,NNE,12,0.0,0.0,57,0.00,,---,0.00,VWS V14.01,2013-09-22 04:22:00,
2013-09-21 23:26:00,54.9,39.9,24.89,NNE,12,0.0,0.0,57,0.00,,---,0.00,VWS V14.01,2013-09-22 04:26:00,
2013-09-21 23:27:00,54.9,39.9,24.89,NNE,12,0.0,0.0,57,0.00,,---,0.00,VWS V14.01,2013-09-22 04:27:00,
2013-09-21 23:31:00,54.7,40.2,24.89,NNE,12,0.0,0.0,58,0.00,,---,0.00,VWS V14.01,2013-09-22 04:31:00,
2013-09-21 23:32:00,54.7,40.2,24.89,NNE,12,0.0,0.0,58,0.00,,---,0.00,VWS V14.01,2013-09-22 04:32:00,
2013-09-21 23:36:00,54.9,41.2,24.92,North,357,2.7,3.1,60,0.00,,---,0.00,VWS V14.01,2013-09-22 04:36:00,
2013-09-21 23:37:00,54.9,41.2,24.92,North,357,2.2,3.1,60,0.00,,---,0.00,VWS V14.01,2013-09-22 04:37:00,
2013-09-21 23:41:00,54.7,41.1,24.92,North,357,0.0,0.0,60,0.00,,---,0.00,VWS V14.01,2013-09-22 04:41:00,
2013-09-21 23:42:00,54.7,41.1,24.92,North,357,0.0,0.0,60,0.00,,---,0.00,VWS V14.01,2013-09-22 04:42:00,
2013-09-21 23:46:00,54.7,41.5,24.92,North,357,0.0,0.0,61,0.00,,---,0.00,VWS V14.01,2013-09-22 04:46:00,
2013-09-21 23:47:00,54.5,41.3,24.92,North,357,0.0,0.0,61,0.00,,---,0.00,VWS V14.01,2013-09-22 04:47:00,
2013-09-21 23:51:00,54.5,41.3,24.92,North,357,0.0,0.0,61,0.00,,---,0.00,VWS V14.01,2013-09-22 04:51:00,
2013-09-21 23:52:00,54.5,41.3,24.92,North,357,0.0,0.0,61,0.00,,---,0.00,VWS V14.01,2013-09-22 04:52:00,
2013-09-21 23:53:00,54.3,41.6,24.92,North,357,0.0,0.0,62,0.00,,---,0.00,VWS V14.01,2013-09-22 04:53:00,
2013-09-21 23:56:00,54.3,41.6,24.92,North,357,0.0,0.0,62,0.00,,---,0.00,VWS V14.01,2013-09-22 04:56:00,
2013-09-21 23:57:00,54.3,41.6,24.92,North,0,0.0,0.0,62,0.00,,---,0.00,VWS V14.01,2013-09-22 04:57:00,
2013-09-21 23:58:00,54.3,42.0,24.92,North,0,0.0,0.0,63,0.00,,---,0.00,VWS V14.01,2013-09-22 04:58:00,